<?xml version="1.0" encoding="UTF-8" standalone="yes"?>
<gpx
 xmlns="http://www.topografix.com/GPX/1/1"
 creator="OziExplorer Version 3956f - http://www.oziexplorer.com"
 version="1.1"
 xmlns:xsi="http://www.w3.org/2001/XMLSchema-instance"
 xsi:schemaLocation="http://www.topografix.com/GPX/1/1 http://www.topografix.com/GPX/1/1/gpx.xsd">
<metadata>
 <time>2025-10-02T11:08:20Z</time>
 <bounds minlat="31.801150" minlon="34.989900" maxlat="31.841610" maxlon="35.087130"/>
</metadata>
<wpt lat="31.8180320" lon="35.0260900">
 <time>2025-10-02T14:08:05.695Z</time>
 <name>St\Fin</name>
 <sym>Flag, Red</sym>
</wpt>
<trk>
 <name>Kanada-Ilan-MIshlatim_24km.650m</name>
 <desc>Kanada-Ilan-MIshlatim_24km.650m</desc>
<trkseg>
<trkpt lat="31.8180400" lon="35.0260900">
<ele>283.750000</ele>
<time>2025-10-02T14:08:05.695Z</time>
</trkpt>
<trkpt lat="31.8180800" lon="35.0260800">
<ele>284.399994</ele>
<time>2025-10-02T14:08:05.695Z</time>
</trkpt>
<trkpt lat="31.8180700" lon="35.0259500">
<ele>283.669983</ele>
<time>2025-10-02T14:08:05.695Z</time>
</trkpt>
<trkpt lat="31.8183100" lon="35.0250700">
<ele>275.799988</ele>
<time>2025-10-02T14:08:05.695Z</time>
</trkpt>
<trkpt lat="31.8185500" lon="35.0247300">
<ele>275.610016</ele>
<time>2025-10-02T14:08:05.695Z</time>
</trkpt>
<trkpt lat="31.8188500" lon="35.0244300">
<ele>281.180023</ele>
<time>2025-10-02T14:08:05.695Z</time>
</trkpt>
<trkpt lat="31.8190600" lon="35.0244200">
<ele>283.559998</ele>
<time>2025-10-02T14:08:05.695Z</time>
</trkpt>
<trkpt lat="31.8190100" lon="35.0240000">
<ele>278.369995</ele>
<time>2025-10-02T14:08:05.695Z</time>
</trkpt>
<trkpt lat="31.8190000" lon="35.0233800">
<ele>273.470001</ele>
<time>2025-10-02T14:08:05.695Z</time>
</trkpt>
<trkpt lat="31.8191300" lon="35.0229700">
<ele>273.369995</ele>
<time>2025-10-02T14:08:05.695Z</time>
</trkpt>
<trkpt lat="31.8193200" lon="35.0225500">
<ele>269.720001</ele>
<time>2025-10-02T14:08:05.695Z</time>
</trkpt>
<trkpt lat="31.8196700" lon="35.0221500">
<ele>267.000000</ele>
<time>2025-10-02T14:08:05.695Z</time>
</trkpt>
<trkpt lat="31.8201600" lon="35.0216100">
<ele>261.449982</ele>
<time>2025-10-02T14:08:05.695Z</time>
</trkpt>
<trkpt lat="31.8207800" lon="35.0209900">
<ele>260.829987</ele>
<time>2025-10-02T14:08:05.695Z</time>
</trkpt>
<trkpt lat="31.8208700" lon="35.0209400">
<ele>261.250000</ele>
<time>2025-10-02T14:08:05.695Z</time>
</trkpt>
<trkpt lat="31.8209800" lon="35.0209300">
<ele>262.619995</ele>
<time>2025-10-02T14:08:05.695Z</time>
</trkpt>
<trkpt lat="31.8209900" lon="35.0208700">
<ele>262.450012</ele>
<time>2025-10-02T14:08:05.695Z</time>
</trkpt>
<trkpt lat="31.8209600" lon="35.0208000">
<ele>261.589996</ele>
<time>2025-10-02T14:08:05.695Z</time>
</trkpt>
<trkpt lat="31.8209800" lon="35.0206200">
<ele>260.529999</ele>
<time>2025-10-02T14:08:05.695Z</time>
</trkpt>
<trkpt lat="31.8214700" lon="35.0201000">
<ele>264.660004</ele>
<time>2025-10-02T14:08:05.695Z</time>
</trkpt>
<trkpt lat="31.8218300" lon="35.0198600">
<ele>263.410004</ele>
<time>2025-10-02T14:08:05.695Z</time>
</trkpt>
<trkpt lat="31.8219100" lon="35.0197300">
<ele>262.300018</ele>
<time>2025-10-02T14:08:05.695Z</time>
</trkpt>
<trkpt lat="31.8219700" lon="35.0195400">
<ele>262.029999</ele>
<time>2025-10-02T14:08:05.695Z</time>
</trkpt>
<trkpt lat="31.8220100" lon="35.0190100">
<ele>263.290009</ele>
<time>2025-10-02T14:08:05.695Z</time>
</trkpt>
<trkpt lat="31.8220800" lon="35.0187500">
<ele>262.279999</ele>
<time>2025-10-02T14:08:05.695Z</time>
</trkpt>
<trkpt lat="31.8220500" lon="35.0186700">
<ele>262.369995</ele>
<time>2025-10-02T14:08:05.695Z</time>
</trkpt>
<trkpt lat="31.8220000" lon="35.0186500">
<ele>262.709991</ele>
<time>2025-10-02T14:08:05.695Z</time>
</trkpt>
<trkpt lat="31.8221000" lon="35.0183200">
<ele>259.679993</ele>
<time>2025-10-02T14:08:05.695Z</time>
</trkpt>
<trkpt lat="31.8222400" lon="35.0176400">
<ele>256.940002</ele>
<time>2025-10-02T14:08:05.695Z</time>
</trkpt>
<trkpt lat="31.8223700" lon="35.0171100">
<ele>254.939987</ele>
<time>2025-10-02T14:08:05.695Z</time>
</trkpt>
<trkpt lat="31.8225500" lon="35.0167300">
<ele>254.809998</ele>
<time>2025-10-02T14:08:05.695Z</time>
</trkpt>
<trkpt lat="31.8226500" lon="35.0165600">
<ele>255.000000</ele>
<time>2025-10-02T14:08:05.695Z</time>
</trkpt>
<trkpt lat="31.8229800" lon="35.0162100">
<ele>254.270004</ele>
<time>2025-10-02T14:08:05.695Z</time>
</trkpt>
<trkpt lat="31.8231400" lon="35.0162800">
<ele>255.280014</ele>
<time>2025-10-02T14:08:05.695Z</time>
</trkpt>
<trkpt lat="31.8240000" lon="35.0162900">
<ele>259.899994</ele>
<time>2025-10-02T14:08:05.695Z</time>
</trkpt>
<trkpt lat="31.8248000" lon="35.0162500">
<ele>263.419983</ele>
<time>2025-10-02T14:08:05.695Z</time>
</trkpt>
<trkpt lat="31.8253200" lon="35.0158500">
<ele>260.019989</ele>
<time>2025-10-02T14:08:05.695Z</time>
</trkpt>
<trkpt lat="31.8258300" lon="35.0155400">
<ele>259.010010</ele>
<time>2025-10-02T14:08:05.695Z</time>
</trkpt>
<trkpt lat="31.8262000" lon="35.0153700">
<ele>260.510010</ele>
<time>2025-10-02T14:08:05.695Z</time>
</trkpt>
<trkpt lat="31.8263400" lon="35.0153400">
<ele>262.339996</ele>
<time>2025-10-02T14:08:05.695Z</time>
</trkpt>
<trkpt lat="31.8268500" lon="35.0154100">
<ele>268.309998</ele>
<time>2025-10-02T14:08:05.695Z</time>
</trkpt>
<trkpt lat="31.8269500" lon="35.0154500">
<ele>268.619995</ele>
<time>2025-10-02T14:08:05.695Z</time>
</trkpt>
<trkpt lat="31.8270600" lon="35.0155600">
<ele>269.059998</ele>
<time>2025-10-02T14:08:05.695Z</time>
</trkpt>
<trkpt lat="31.8272000" lon="35.0158200">
<ele>272.809998</ele>
<time>2025-10-02T14:08:05.695Z</time>
</trkpt>
<trkpt lat="31.8272800" lon="35.0159800">
<ele>276.779999</ele>
<time>2025-10-02T14:08:05.695Z</time>
</trkpt>
<trkpt lat="31.8274000" lon="35.0160500">
<ele>278.239990</ele>
<time>2025-10-02T14:08:05.695Z</time>
</trkpt>
<trkpt lat="31.8274500" lon="35.0161500">
<ele>279.769989</ele>
<time>2025-10-02T14:08:05.695Z</time>
</trkpt>
<trkpt lat="31.8274500" lon="35.0163400">
<ele>282.619995</ele>
<time>2025-10-02T14:08:05.695Z</time>
</trkpt>
<trkpt lat="31.8275000" lon="35.0166000">
<ele>283.760010</ele>
<time>2025-10-02T14:08:05.695Z</time>
</trkpt>
<trkpt lat="31.8277100" lon="35.0166900">
<ele>281.820007</ele>
<time>2025-10-02T14:08:05.695Z</time>
</trkpt>
<trkpt lat="31.8279800" lon="35.0167500">
<ele>281.079987</ele>
<time>2025-10-02T14:08:05.695Z</time>
</trkpt>
<trkpt lat="31.8281700" lon="35.0166900">
<ele>282.679993</ele>
<time>2025-10-02T14:08:05.695Z</time>
</trkpt>
<trkpt lat="31.8283800" lon="35.0165800">
<ele>285.790009</ele>
<time>2025-10-02T14:08:05.695Z</time>
</trkpt>
<trkpt lat="31.8284400" lon="35.0165100">
<ele>286.700012</ele>
<time>2025-10-02T14:08:05.695Z</time>
</trkpt>
<trkpt lat="31.8284700" lon="35.0164000">
<ele>286.989990</ele>
<time>2025-10-02T14:08:05.695Z</time>
</trkpt>
<trkpt lat="31.8284700" lon="35.0155900">
<ele>290.399994</ele>
<time>2025-10-02T14:08:05.695Z</time>
</trkpt>
<trkpt lat="31.8284500" lon="35.0143900">
<ele>290.529999</ele>
<time>2025-10-02T14:08:05.695Z</time>
</trkpt>
<trkpt lat="31.8284600" lon="35.0141300">
<ele>289.890015</ele>
<time>2025-10-02T14:08:05.695Z</time>
</trkpt>
<trkpt lat="31.8282700" lon="35.0135600">
<ele>293.100006</ele>
<time>2025-10-02T14:08:05.695Z</time>
</trkpt>
<trkpt lat="31.8282500" lon="35.0132800">
<ele>293.730011</ele>
<time>2025-10-02T14:08:05.695Z</time>
</trkpt>
<trkpt lat="31.8285100" lon="35.0127600">
<ele>299.160004</ele>
<time>2025-10-02T14:08:05.695Z</time>
</trkpt>
<trkpt lat="31.8289500" lon="35.0121400">
<ele>308.510010</ele>
<time>2025-10-02T14:08:05.695Z</time>
</trkpt>
<trkpt lat="31.8292400" lon="35.0115500">
<ele>318.479980</ele>
<time>2025-10-02T14:08:05.695Z</time>
</trkpt>
<trkpt lat="31.8294300" lon="35.0113000">
<ele>321.810028</ele>
<time>2025-10-02T14:08:05.695Z</time>
</trkpt>
<trkpt lat="31.8294900" lon="35.0111500">
<ele>322.979980</ele>
<time>2025-10-02T14:08:05.695Z</time>
</trkpt>
<trkpt lat="31.8294900" lon="35.0108600">
<ele>323.130005</ele>
<time>2025-10-02T14:08:05.695Z</time>
</trkpt>
<trkpt lat="31.8293300" lon="35.0102900">
<ele>320.799988</ele>
<time>2025-10-02T14:08:05.695Z</time>
</trkpt>
<trkpt lat="31.8292800" lon="35.0099100">
<ele>319.619995</ele>
<time>2025-10-02T14:08:05.695Z</time>
</trkpt>
<trkpt lat="31.8292700" lon="35.0095700">
<ele>318.220032</ele>
<time>2025-10-02T14:08:05.695Z</time>
</trkpt>
<trkpt lat="31.8293100" lon="35.0088500">
<ele>316.299988</ele>
<time>2025-10-02T14:08:05.695Z</time>
</trkpt>
<trkpt lat="31.8293600" lon="35.0085200">
<ele>314.499969</ele>
<time>2025-10-02T14:08:05.695Z</time>
</trkpt>
<trkpt lat="31.8293700" lon="35.0083100">
<ele>312.319977</ele>
<time>2025-10-02T14:08:05.695Z</time>
</trkpt>
<trkpt lat="31.8293300" lon="35.0080600">
<ele>308.000000</ele>
<time>2025-10-02T14:08:05.695Z</time>
</trkpt>
<trkpt lat="31.8292400" lon="35.0077300">
<ele>301.709991</ele>
<time>2025-10-02T14:08:05.695Z</time>
</trkpt>
<trkpt lat="31.8292500" lon="35.0075700">
<ele>299.809998</ele>
<time>2025-10-02T14:08:05.695Z</time>
</trkpt>
<trkpt lat="31.8293200" lon="35.0074700">
<ele>299.059998</ele>
<time>2025-10-02T14:08:05.695Z</time>
</trkpt>
<trkpt lat="31.8295800" lon="35.0072400">
<ele>298.799988</ele>
<time>2025-10-02T14:08:05.695Z</time>
</trkpt>
<trkpt lat="31.8296300" lon="35.0071700">
<ele>298.989990</ele>
<time>2025-10-02T14:08:05.695Z</time>
</trkpt>
<trkpt lat="31.8297500" lon="35.0069700">
<ele>298.710022</ele>
<time>2025-10-02T14:08:05.695Z</time>
</trkpt>
<trkpt lat="31.8299100" lon="35.0065900">
<ele>296.480011</ele>
<time>2025-10-02T14:08:05.695Z</time>
</trkpt>
<trkpt lat="31.8301200" lon="35.0059100">
<ele>290.089996</ele>
<time>2025-10-02T14:08:05.695Z</time>
</trkpt>
<trkpt lat="31.8302400" lon="35.0057500">
<ele>288.709991</ele>
<time>2025-10-02T14:08:05.695Z</time>
</trkpt>
<trkpt lat="31.8304300" lon="35.0056500">
<ele>288.929993</ele>
<time>2025-10-02T14:08:05.695Z</time>
</trkpt>
<trkpt lat="31.8307600" lon="35.0056700">
<ele>289.820007</ele>
<time>2025-10-02T14:08:05.695Z</time>
</trkpt>
<trkpt lat="31.8308600" lon="35.0056500">
<ele>289.140015</ele>
<time>2025-10-02T14:08:05.695Z</time>
</trkpt>
<trkpt lat="31.8309100" lon="35.0055500">
<ele>287.320007</ele>
<time>2025-10-02T14:08:05.695Z</time>
</trkpt>
<trkpt lat="31.8308600" lon="35.0052600">
<ele>286.489990</ele>
<time>2025-10-02T14:08:05.695Z</time>
</trkpt>
<trkpt lat="31.8309000" lon="35.0052100">
<ele>285.610016</ele>
<time>2025-10-02T14:08:05.695Z</time>
</trkpt>
<trkpt lat="31.8309700" lon="35.0052200">
<ele>284.720001</ele>
<time>2025-10-02T14:08:05.695Z</time>
</trkpt>
<trkpt lat="31.8311800" lon="35.0053800">
<ele>281.170013</ele>
<time>2025-10-02T14:08:05.695Z</time>
</trkpt>
<trkpt lat="31.8313400" lon="35.0054700">
<ele>276.660004</ele>
<time>2025-10-02T14:08:05.695Z</time>
</trkpt>
<trkpt lat="31.8314100" lon="35.0054400">
<ele>275.089996</ele>
<time>2025-10-02T14:08:05.695Z</time>
</trkpt>
<trkpt lat="31.8314600" lon="35.0053800">
<ele>274.380005</ele>
<time>2025-10-02T14:08:05.695Z</time>
</trkpt>
<trkpt lat="31.8315000" lon="35.0052200">
<ele>273.269989</ele>
<time>2025-10-02T14:08:05.695Z</time>
</trkpt>
<trkpt lat="31.8315200" lon="35.0046700">
<ele>267.739990</ele>
<time>2025-10-02T14:08:05.695Z</time>
</trkpt>
<trkpt lat="31.8314800" lon="35.0045500">
<ele>267.450012</ele>
<time>2025-10-02T14:08:05.695Z</time>
</trkpt>
<trkpt lat="31.8312700" lon="35.0042000">
<ele>267.670013</ele>
<time>2025-10-02T14:08:05.695Z</time>
</trkpt>
<trkpt lat="31.8312600" lon="35.0040800">
<ele>266.910004</ele>
<time>2025-10-02T14:08:05.695Z</time>
</trkpt>
<trkpt lat="31.8312900" lon="35.0040300">
<ele>266.660004</ele>
<time>2025-10-02T14:08:05.695Z</time>
</trkpt>
<trkpt lat="31.8313400" lon="35.0040200">
<ele>266.770020</ele>
<time>2025-10-02T14:08:05.695Z</time>
</trkpt>
<trkpt lat="31.8314300" lon="35.0040800">
<ele>266.829987</ele>
<time>2025-10-02T14:08:05.695Z</time>
</trkpt>
<trkpt lat="31.8316000" lon="35.0043000">
<ele>264.959991</ele>
<time>2025-10-02T14:08:05.695Z</time>
</trkpt>
<trkpt lat="31.8316900" lon="35.0044800">
<ele>264.140015</ele>
<time>2025-10-02T14:08:05.695Z</time>
</trkpt>
<trkpt lat="31.8318600" lon="35.0049500">
<ele>264.529999</ele>
<time>2025-10-02T14:08:05.695Z</time>
</trkpt>
<trkpt lat="31.8319500" lon="35.0051200">
<ele>264.809998</ele>
<time>2025-10-02T14:08:05.695Z</time>
</trkpt>
<trkpt lat="31.8320800" lon="35.0050600">
<ele>265.820007</ele>
<time>2025-10-02T14:08:05.695Z</time>
</trkpt>
<trkpt lat="31.8321400" lon="35.0049100">
<ele>265.260010</ele>
<time>2025-10-02T14:08:05.695Z</time>
</trkpt>
<trkpt lat="31.8321400" lon="35.0047000">
<ele>264.190002</ele>
<time>2025-10-02T14:08:05.695Z</time>
</trkpt>
<trkpt lat="31.8320900" lon="35.0044100">
<ele>264.450012</ele>
<time>2025-10-02T14:08:05.695Z</time>
</trkpt>
<trkpt lat="31.8320900" lon="35.0042800">
<ele>263.980011</ele>
<time>2025-10-02T14:08:05.695Z</time>
</trkpt>
<trkpt lat="31.8321400" lon="35.0041200">
<ele>264.059998</ele>
<time>2025-10-02T14:08:05.695Z</time>
</trkpt>
<trkpt lat="31.8323400" lon="35.0037700">
<ele>267.899994</ele>
<time>2025-10-02T14:08:05.695Z</time>
</trkpt>
<trkpt lat="31.8323600" lon="35.0036900">
<ele>268.470001</ele>
<time>2025-10-02T14:08:05.695Z</time>
</trkpt>
<trkpt lat="31.8323200" lon="35.0034400">
<ele>269.199982</ele>
<time>2025-10-02T14:08:05.695Z</time>
</trkpt>
<trkpt lat="31.8322100" lon="35.0031400">
<ele>272.750000</ele>
<time>2025-10-02T14:08:05.695Z</time>
</trkpt>
<trkpt lat="31.8321800" lon="35.0030500">
<ele>274.730011</ele>
<time>2025-10-02T14:08:05.695Z</time>
</trkpt>
<trkpt lat="31.8321200" lon="35.0030000">
<ele>275.679993</ele>
<time>2025-10-02T14:08:05.695Z</time>
</trkpt>
<trkpt lat="31.8320600" lon="35.0029600">
<ele>276.089996</ele>
<time>2025-10-02T14:08:05.695Z</time>
</trkpt>
<trkpt lat="31.8318800" lon="35.0029400">
<ele>274.759979</ele>
<time>2025-10-02T14:08:05.695Z</time>
</trkpt>
<trkpt lat="31.8318200" lon="35.0029000">
<ele>275.359985</ele>
<time>2025-10-02T14:08:05.695Z</time>
</trkpt>
<trkpt lat="31.8317600" lon="35.0028000">
<ele>276.660004</ele>
<time>2025-10-02T14:08:05.695Z</time>
</trkpt>
<trkpt lat="31.8317500" lon="35.0026700">
<ele>277.910004</ele>
<time>2025-10-02T14:08:05.695Z</time>
</trkpt>
<trkpt lat="31.8318100" lon="35.0025200">
<ele>280.360016</ele>
<time>2025-10-02T14:08:05.695Z</time>
</trkpt>
<trkpt lat="31.8321200" lon="35.0023100">
<ele>289.040009</ele>
<time>2025-10-02T14:08:05.695Z</time>
</trkpt>
<trkpt lat="31.8321400" lon="35.0022300">
<ele>290.160004</ele>
<time>2025-10-02T14:08:05.695Z</time>
</trkpt>
<trkpt lat="31.8321100" lon="35.0021500">
<ele>290.570007</ele>
<time>2025-10-02T14:08:05.695Z</time>
</trkpt>
<trkpt lat="31.8319900" lon="35.0019900">
<ele>290.890015</ele>
<time>2025-10-02T14:08:05.695Z</time>
</trkpt>
<trkpt lat="31.8315400" lon="35.0016600">
<ele>295.479980</ele>
<time>2025-10-02T14:08:05.695Z</time>
</trkpt>
<trkpt lat="31.8312000" lon="35.0015100">
<ele>298.239990</ele>
<time>2025-10-02T14:08:05.695Z</time>
</trkpt>
<trkpt lat="31.8308500" lon="35.0012200">
<ele>300.130005</ele>
<time>2025-10-02T14:08:05.695Z</time>
</trkpt>
<trkpt lat="31.8304500" lon="35.0009300">
<ele>297.510010</ele>
<time>2025-10-02T14:08:05.695Z</time>
</trkpt>
<trkpt lat="31.8301000" lon="35.0006300">
<ele>294.170013</ele>
<time>2025-10-02T14:08:05.695Z</time>
</trkpt>
<trkpt lat="31.8301000" lon="35.0006300">
<ele>294.170013</ele>
<time>2025-10-02T14:08:05.695Z</time>
</trkpt>
<trkpt lat="31.8300000" lon="35.0005100">
<ele>293.330017</ele>
<time>2025-10-02T14:08:05.695Z</time>
</trkpt>
<trkpt lat="31.8298200" lon="35.0002000">
<ele>292.410004</ele>
<time>2025-10-02T14:08:05.695Z</time>
</trkpt>
<trkpt lat="31.8295900" lon="34.9999200">
<ele>290.890015</ele>
<time>2025-10-02T14:08:05.695Z</time>
</trkpt>
<trkpt lat="31.8291300" lon="34.9992700">
<ele>293.190002</ele>
<time>2025-10-02T14:08:05.695Z</time>
</trkpt>
<trkpt lat="31.8289800" lon="34.9991500">
<ele>294.830017</ele>
<time>2025-10-02T14:08:05.695Z</time>
</trkpt>
<trkpt lat="31.8286200" lon="34.9989600">
<ele>294.820007</ele>
<time>2025-10-02T14:08:05.695Z</time>
</trkpt>
<trkpt lat="31.8283800" lon="34.9986000">
<ele>288.880005</ele>
<time>2025-10-02T14:08:05.695Z</time>
</trkpt>
<trkpt lat="31.8282300" lon="34.9982600">
<ele>281.709991</ele>
<time>2025-10-02T14:08:05.695Z</time>
</trkpt>
<trkpt lat="31.8282000" lon="34.9980100">
<ele>277.380005</ele>
<time>2025-10-02T14:08:05.695Z</time>
</trkpt>
<trkpt lat="31.8282900" lon="34.9976800">
<ele>273.869995</ele>
<time>2025-10-02T14:08:05.695Z</time>
</trkpt>
<trkpt lat="31.8284000" lon="34.9974700">
<ele>272.399994</ele>
<time>2025-10-02T14:08:05.695Z</time>
</trkpt>
<trkpt lat="31.8288600" lon="34.9969300">
<ele>264.989990</ele>
<time>2025-10-02T14:08:05.695Z</time>
</trkpt>
<trkpt lat="31.8290000" lon="34.9968900">
<ele>263.570007</ele>
<time>2025-10-02T14:08:05.695Z</time>
</trkpt>
<trkpt lat="31.8292900" lon="34.9968700">
<ele>263.230011</ele>
<time>2025-10-02T14:08:05.695Z</time>
</trkpt>
<trkpt lat="31.8297400" lon="34.9966100">
<ele>257.410004</ele>
<time>2025-10-02T14:08:05.695Z</time>
</trkpt>
<trkpt lat="31.8299500" lon="34.9965300">
<ele>254.959991</ele>
<time>2025-10-02T14:08:05.695Z</time>
</trkpt>
<trkpt lat="31.8304200" lon="34.9964100">
<ele>256.769989</ele>
<time>2025-10-02T14:08:05.695Z</time>
</trkpt>
<trkpt lat="31.8306900" lon="34.9964000">
<ele>263.529999</ele>
<time>2025-10-02T14:08:05.695Z</time>
</trkpt>
<trkpt lat="31.8310700" lon="34.9965200">
<ele>274.450012</ele>
<time>2025-10-02T14:08:05.695Z</time>
</trkpt>
<trkpt lat="31.8314400" lon="34.9966800">
<ele>279.519989</ele>
<time>2025-10-02T14:08:05.695Z</time>
</trkpt>
<trkpt lat="31.8319300" lon="34.9968400">
<ele>277.790009</ele>
<time>2025-10-02T14:08:05.695Z</time>
</trkpt>
<trkpt lat="31.8325300" lon="34.9969400">
<ele>283.080017</ele>
<time>2025-10-02T14:08:05.695Z</time>
</trkpt>
<trkpt lat="31.8327800" lon="34.9971700">
<ele>285.010010</ele>
<time>2025-10-02T14:08:05.695Z</time>
</trkpt>
<trkpt lat="31.8331000" lon="34.9973600">
<ele>285.750000</ele>
<time>2025-10-02T14:08:05.695Z</time>
</trkpt>
<trkpt lat="31.8331800" lon="34.9974500">
<ele>285.639984</ele>
<time>2025-10-02T14:08:05.695Z</time>
</trkpt>
<trkpt lat="31.8332900" lon="34.9976700">
<ele>286.820007</ele>
<time>2025-10-02T14:08:05.695Z</time>
</trkpt>
<trkpt lat="31.8333800" lon="34.9977300">
<ele>286.270020</ele>
<time>2025-10-02T14:08:05.695Z</time>
</trkpt>
<trkpt lat="31.8336300" lon="34.9977700">
<ele>283.080017</ele>
<time>2025-10-02T14:08:05.695Z</time>
</trkpt>
<trkpt lat="31.8343500" lon="34.9977100">
<ele>289.720001</ele>
<time>2025-10-02T14:08:05.695Z</time>
</trkpt>
<trkpt lat="31.8348100" lon="34.9977300">
<ele>298.500000</ele>
<time>2025-10-02T14:08:05.695Z</time>
</trkpt>
<trkpt lat="31.8349700" lon="34.9978500">
<ele>297.960022</ele>
<time>2025-10-02T14:08:05.695Z</time>
</trkpt>
<trkpt lat="31.8352300" lon="34.9981300">
<ele>297.179993</ele>
<time>2025-10-02T14:08:05.695Z</time>
</trkpt>
<trkpt lat="31.8355200" lon="34.9983100">
<ele>296.919983</ele>
<time>2025-10-02T14:08:05.695Z</time>
</trkpt>
<trkpt lat="31.8356100" lon="34.9983300">
<ele>296.559998</ele>
<time>2025-10-02T14:08:05.695Z</time>
</trkpt>
<trkpt lat="31.8357300" lon="34.9982500">
<ele>294.920013</ele>
<time>2025-10-02T14:08:05.695Z</time>
</trkpt>
<trkpt lat="31.8358000" lon="34.9981400">
<ele>293.680023</ele>
<time>2025-10-02T14:08:05.695Z</time>
</trkpt>
<trkpt lat="31.8360800" lon="34.9974200">
<ele>299.589996</ele>
<time>2025-10-02T14:08:05.695Z</time>
</trkpt>
<trkpt lat="31.8361100" lon="34.9973100">
<ele>301.720001</ele>
<time>2025-10-02T14:08:05.695Z</time>
</trkpt>
<trkpt lat="31.8360200" lon="34.9971300">
<ele>301.250000</ele>
<time>2025-10-02T14:08:05.695Z</time>
</trkpt>
<trkpt lat="31.8357500" lon="34.9967300">
<ele>296.079987</ele>
<time>2025-10-02T14:08:05.695Z</time>
</trkpt>
<trkpt lat="31.8354800" lon="34.9964600">
<ele>291.959991</ele>
<time>2025-10-02T14:08:05.695Z</time>
</trkpt>
<trkpt lat="31.8353800" lon="34.9964200">
<ele>291.309998</ele>
<time>2025-10-02T14:08:05.695Z</time>
</trkpt>
<trkpt lat="31.8352600" lon="34.9963100">
<ele>291.720001</ele>
<time>2025-10-02T14:08:05.695Z</time>
</trkpt>
<trkpt lat="31.8352300" lon="34.9961500">
<ele>293.239990</ele>
<time>2025-10-02T14:08:05.695Z</time>
</trkpt>
<trkpt lat="31.8352300" lon="34.9961500">
<ele>293.239990</ele>
<time>2025-10-02T14:08:05.695Z</time>
</trkpt>
<trkpt lat="31.8352300" lon="34.9955600">
<ele>297.640015</ele>
<time>2025-10-02T14:08:05.695Z</time>
</trkpt>
<trkpt lat="31.8351500" lon="34.9953200">
<ele>299.559998</ele>
<time>2025-10-02T14:08:05.695Z</time>
</trkpt>
<trkpt lat="31.8349200" lon="34.9944000">
<ele>301.049988</ele>
<time>2025-10-02T14:08:05.695Z</time>
</trkpt>
<trkpt lat="31.8350100" lon="34.9942300">
<ele>300.390015</ele>
<time>2025-10-02T14:08:05.695Z</time>
</trkpt>
<trkpt lat="31.8352300" lon="34.9937800">
<ele>297.750000</ele>
<time>2025-10-02T14:08:05.695Z</time>
</trkpt>
<trkpt lat="31.8352000" lon="34.9936500">
<ele>299.160004</ele>
<time>2025-10-02T14:08:05.695Z</time>
</trkpt>
<trkpt lat="31.8352700" lon="34.9934100">
<ele>298.119995</ele>
<time>2025-10-02T14:08:05.695Z</time>
</trkpt>
<trkpt lat="31.8353500" lon="34.9932200">
<ele>295.609985</ele>
<time>2025-10-02T14:08:05.695Z</time>
</trkpt>
<trkpt lat="31.8355300" lon="34.9927100">
<ele>290.369995</ele>
<time>2025-10-02T14:08:05.695Z</time>
</trkpt>
<trkpt lat="31.8356500" lon="34.9925500">
<ele>287.559998</ele>
<time>2025-10-02T14:08:05.695Z</time>
</trkpt>
<trkpt lat="31.8356600" lon="34.9924300">
<ele>287.619995</ele>
<time>2025-10-02T14:08:05.695Z</time>
</trkpt>
<trkpt lat="31.8355800" lon="34.9923200">
<ele>290.029999</ele>
<time>2025-10-02T14:08:05.695Z</time>
</trkpt>
<trkpt lat="31.8354300" lon="34.9922400">
<ele>290.960022</ele>
<time>2025-10-02T14:08:05.695Z</time>
</trkpt>
<trkpt lat="31.8353000" lon="34.9920400">
<ele>289.140015</ele>
<time>2025-10-02T14:08:05.695Z</time>
</trkpt>
<trkpt lat="31.8352800" lon="34.9919100">
<ele>287.399994</ele>
<time>2025-10-02T14:08:05.695Z</time>
</trkpt>
<trkpt lat="31.8353000" lon="34.9914800">
<ele>280.709991</ele>
<time>2025-10-02T14:08:05.695Z</time>
</trkpt>
<trkpt lat="31.8352900" lon="34.9910300">
<ele>275.950012</ele>
<time>2025-10-02T14:08:05.695Z</time>
</trkpt>
<trkpt lat="31.8353200" lon="34.9908600">
<ele>273.700012</ele>
<time>2025-10-02T14:08:05.695Z</time>
</trkpt>
<trkpt lat="31.8355200" lon="34.9903200">
<ele>265.679993</ele>
<time>2025-10-02T14:08:05.695Z</time>
</trkpt>
<trkpt lat="31.8356200" lon="34.9901900">
<ele>262.029999</ele>
<time>2025-10-02T14:08:05.695Z</time>
</trkpt>
<trkpt lat="31.8358400" lon="34.9899800">
<ele>261.690002</ele>
<time>2025-10-02T14:08:05.695Z</time>
</trkpt>
<trkpt lat="31.8359300" lon="34.9899100">
<ele>260.359985</ele>
<time>2025-10-02T14:08:05.695Z</time>
</trkpt>
<trkpt lat="31.8360800" lon="34.9899000">
<ele>259.669983</ele>
<time>2025-10-02T14:08:05.695Z</time>
</trkpt>
<trkpt lat="31.8363200" lon="34.9899800">
<ele>263.399994</ele>
<time>2025-10-02T14:08:05.695Z</time>
</trkpt>
<trkpt lat="31.8365600" lon="34.9903900">
<ele>271.670013</ele>
<time>2025-10-02T14:08:05.695Z</time>
</trkpt>
<trkpt lat="31.8370900" lon="34.9909700">
<ele>259.329987</ele>
<time>2025-10-02T14:08:05.695Z</time>
</trkpt>
<trkpt lat="31.8371500" lon="34.9910700">
<ele>255.229996</ele>
<time>2025-10-02T14:08:05.695Z</time>
</trkpt>
<trkpt lat="31.8371600" lon="34.9911700">
<ele>253.190002</ele>
<time>2025-10-02T14:08:05.695Z</time>
</trkpt>
<trkpt lat="31.8370100" lon="34.9915300">
<ele>251.389999</ele>
<time>2025-10-02T14:08:05.695Z</time>
</trkpt>
<trkpt lat="31.8367800" lon="34.9924100">
<ele>256.899994</ele>
<time>2025-10-02T14:08:05.695Z</time>
</trkpt>
<trkpt lat="31.8369300" lon="34.9928000">
<ele>260.809998</ele>
<time>2025-10-02T14:08:05.695Z</time>
</trkpt>
<trkpt lat="31.8380600" lon="34.9925900">
<ele>253.319992</ele>
<time>2025-10-02T14:08:05.695Z</time>
</trkpt>
<trkpt lat="31.8383400" lon="34.9925600">
<ele>255.730011</ele>
<time>2025-10-02T14:08:05.695Z</time>
</trkpt>
<trkpt lat="31.8385300" lon="34.9925800">
<ele>252.110001</ele>
<time>2025-10-02T14:08:05.695Z</time>
</trkpt>
<trkpt lat="31.8386300" lon="34.9925900">
<ele>250.440002</ele>
<time>2025-10-02T14:08:05.695Z</time>
</trkpt>
<trkpt lat="31.8392200" lon="34.9928200">
<ele>240.570007</ele>
<time>2025-10-02T14:08:05.695Z</time>
</trkpt>
<trkpt lat="31.8395100" lon="34.9928200">
<ele>235.180008</ele>
<time>2025-10-02T14:08:05.695Z</time>
</trkpt>
<trkpt lat="31.8395100" lon="34.9928200">
<ele>235.180008</ele>
<time>2025-10-02T14:08:05.695Z</time>
</trkpt>
<trkpt lat="31.8399800" lon="34.9926200">
<ele>231.569992</ele>
<time>2025-10-02T14:08:05.695Z</time>
</trkpt>
<trkpt lat="31.8402600" lon="34.9925400">
<ele>234.399994</ele>
<time>2025-10-02T14:08:05.695Z</time>
</trkpt>
<trkpt lat="31.8403700" lon="34.9925400">
<ele>235.289993</ele>
<time>2025-10-02T14:08:05.695Z</time>
</trkpt>
<trkpt lat="31.8404500" lon="34.9925500">
<ele>236.070007</ele>
<time>2025-10-02T14:08:05.695Z</time>
</trkpt>
<trkpt lat="31.8406500" lon="34.9926200">
<ele>237.139999</ele>
<time>2025-10-02T14:08:05.695Z</time>
</trkpt>
<trkpt lat="31.8408800" lon="34.9927600">
<ele>237.980011</ele>
<time>2025-10-02T14:08:05.695Z</time>
</trkpt>
<trkpt lat="31.8411900" lon="34.9931200">
<ele>242.679993</ele>
<time>2025-10-02T14:08:05.695Z</time>
</trkpt>
<trkpt lat="31.8413700" lon="34.9933600">
<ele>238.240005</ele>
<time>2025-10-02T14:08:05.695Z</time>
</trkpt>
<trkpt lat="31.8415300" lon="34.9934600">
<ele>236.299988</ele>
<time>2025-10-02T14:08:05.695Z</time>
</trkpt>
<trkpt lat="31.8416100" lon="34.9935000">
<ele>235.330002</ele>
<time>2025-10-02T14:08:05.695Z</time>
</trkpt>
<trkpt lat="31.8415000" lon="34.9937000">
<ele>235.990005</ele>
<time>2025-10-02T14:08:05.695Z</time>
</trkpt>
<trkpt lat="31.8413700" lon="34.9939400">
<ele>238.169998</ele>
<time>2025-10-02T14:08:05.695Z</time>
</trkpt>
<trkpt lat="31.8412100" lon="34.9942500">
<ele>240.369995</ele>
<time>2025-10-02T14:08:05.695Z</time>
</trkpt>
<trkpt lat="31.8408800" lon="34.9949000">
<ele>242.020004</ele>
<time>2025-10-02T14:08:05.695Z</time>
</trkpt>
<trkpt lat="31.8399800" lon="34.9966300">
<ele>259.710022</ele>
<time>2025-10-02T14:08:05.695Z</time>
</trkpt>
<trkpt lat="31.8395800" lon="34.9971800">
<ele>269.700012</ele>
<time>2025-10-02T14:08:05.695Z</time>
</trkpt>
<trkpt lat="31.8394000" lon="34.9974600">
<ele>272.429993</ele>
<time>2025-10-02T14:08:05.695Z</time>
</trkpt>
<trkpt lat="31.8392700" lon="34.9978300">
<ele>272.399994</ele>
<time>2025-10-02T14:08:05.695Z</time>
</trkpt>
<trkpt lat="31.8387600" lon="34.9993800">
<ele>281.769989</ele>
<time>2025-10-02T14:08:05.695Z</time>
</trkpt>
<trkpt lat="31.8387600" lon="34.9993800">
<ele>281.769989</ele>
<time>2025-10-02T14:08:05.695Z</time>
</trkpt>
<trkpt lat="31.8384900" lon="35.0001500">
<ele>288.350006</ele>
<time>2025-10-02T14:08:05.695Z</time>
</trkpt>
<trkpt lat="31.8384100" lon="35.0003000">
<ele>289.730011</ele>
<time>2025-10-02T14:08:05.695Z</time>
</trkpt>
<trkpt lat="31.8382900" lon="35.0005000">
<ele>292.670013</ele>
<time>2025-10-02T14:08:05.695Z</time>
</trkpt>
<trkpt lat="31.8379500" lon="35.0008800">
<ele>299.920013</ele>
<time>2025-10-02T14:08:05.695Z</time>
</trkpt>
<trkpt lat="31.8376100" lon="35.0012700">
<ele>307.019989</ele>
<time>2025-10-02T14:08:05.695Z</time>
</trkpt>
<trkpt lat="31.8376100" lon="35.0012700">
<ele>307.019989</ele>
<time>2025-10-02T14:08:05.695Z</time>
</trkpt>
<trkpt lat="31.8376100" lon="35.0012700">
<ele>307.019989</ele>
<time>2025-10-02T14:08:05.695Z</time>
</trkpt>
<trkpt lat="31.8376100" lon="35.0012700">
<ele>307.019989</ele>
<time>2025-10-02T14:08:05.695Z</time>
</trkpt>
<trkpt lat="31.8375100" lon="35.0014300">
<ele>309.640015</ele>
<time>2025-10-02T14:08:05.695Z</time>
</trkpt>
<trkpt lat="31.8374300" lon="35.0016300">
<ele>309.380005</ele>
<time>2025-10-02T14:08:05.695Z</time>
</trkpt>
<trkpt lat="31.8374000" lon="35.0018000">
<ele>307.649994</ele>
<time>2025-10-02T14:08:05.695Z</time>
</trkpt>
<trkpt lat="31.8374000" lon="35.0021400">
<ele>305.350006</ele>
<time>2025-10-02T14:08:05.695Z</time>
</trkpt>
<trkpt lat="31.8374400" lon="35.0024100">
<ele>305.209991</ele>
<time>2025-10-02T14:08:05.695Z</time>
</trkpt>
<trkpt lat="31.8376000" lon="35.0031100">
<ele>300.190002</ele>
<time>2025-10-02T14:08:05.695Z</time>
</trkpt>
<trkpt lat="31.8376200" lon="35.0033100">
<ele>299.940002</ele>
<time>2025-10-02T14:08:05.695Z</time>
</trkpt>
<trkpt lat="31.8376200" lon="35.0033100">
<ele>299.940002</ele>
<time>2025-10-02T14:08:05.695Z</time>
</trkpt>
<trkpt lat="31.8376200" lon="35.0035700">
<ele>299.119995</ele>
<time>2025-10-02T14:08:05.695Z</time>
</trkpt>
<trkpt lat="31.8375400" lon="35.0038500">
<ele>300.260010</ele>
<time>2025-10-02T14:08:05.695Z</time>
</trkpt>
<trkpt lat="31.8373300" lon="35.0042500">
<ele>300.850006</ele>
<time>2025-10-02T14:08:05.695Z</time>
</trkpt>
<trkpt lat="31.8372200" lon="35.0045700">
<ele>298.760010</ele>
<time>2025-10-02T14:08:05.695Z</time>
</trkpt>
<trkpt lat="31.8372300" lon="35.0048900">
<ele>298.389984</ele>
<time>2025-10-02T14:08:05.695Z</time>
</trkpt>
<trkpt lat="31.8373600" lon="35.0051500">
<ele>301.899994</ele>
<time>2025-10-02T14:08:05.695Z</time>
</trkpt>
<trkpt lat="31.8373600" lon="35.0051500">
<ele>301.899994</ele>
<time>2025-10-02T14:08:05.695Z</time>
</trkpt>
<trkpt lat="31.8377900" lon="35.0057000">
<ele>306.679993</ele>
<time>2025-10-02T14:08:05.695Z</time>
</trkpt>
<trkpt lat="31.8378900" lon="35.0058200">
<ele>306.540009</ele>
<time>2025-10-02T14:08:05.695Z</time>
</trkpt>
<trkpt lat="31.8380500" lon="35.0060900">
<ele>307.610016</ele>
<time>2025-10-02T14:08:05.695Z</time>
</trkpt>
<trkpt lat="31.8382200" lon="35.0065300">
<ele>303.610016</ele>
<time>2025-10-02T14:08:05.695Z</time>
</trkpt>
<trkpt lat="31.8382800" lon="35.0068300">
<ele>303.649994</ele>
<time>2025-10-02T14:08:05.695Z</time>
</trkpt>
<trkpt lat="31.8382800" lon="35.0068300">
<ele>303.649994</ele>
<time>2025-10-02T14:08:05.695Z</time>
</trkpt>
<trkpt lat="31.8382800" lon="35.0068300">
<ele>303.649994</ele>
<time>2025-10-02T14:08:05.695Z</time>
</trkpt>
<trkpt lat="31.8382300" lon="35.0072700">
<ele>306.779999</ele>
<time>2025-10-02T14:08:05.695Z</time>
</trkpt>
<trkpt lat="31.8381400" lon="35.0077600">
<ele>310.369995</ele>
<time>2025-10-02T14:08:05.695Z</time>
</trkpt>
<trkpt lat="31.8381400" lon="35.0077600">
<ele>310.369995</ele>
<time>2025-10-02T14:08:05.695Z</time>
</trkpt>
<trkpt lat="31.8381400" lon="35.0077600">
<ele>310.369995</ele>
<time>2025-10-02T14:08:05.695Z</time>
</trkpt>
<trkpt lat="31.8379300" lon="35.0084200">
<ele>320.860016</ele>
<time>2025-10-02T14:08:05.695Z</time>
</trkpt>
<trkpt lat="31.8377100" lon="35.0090800">
<ele>326.820007</ele>
<time>2025-10-02T14:08:05.695Z</time>
</trkpt>
<trkpt lat="31.8374600" lon="35.0100100">
<ele>337.440002</ele>
<time>2025-10-02T14:08:05.695Z</time>
</trkpt>
<trkpt lat="31.8374100" lon="35.0102900">
<ele>338.640015</ele>
<time>2025-10-02T14:08:05.695Z</time>
</trkpt>
<trkpt lat="31.8373800" lon="35.0107500">
<ele>338.899994</ele>
<time>2025-10-02T14:08:05.695Z</time>
</trkpt>
<trkpt lat="31.8373800" lon="35.0107500">
<ele>338.899994</ele>
<time>2025-10-02T14:08:05.695Z</time>
</trkpt>
<trkpt lat="31.8373800" lon="35.0107500">
<ele>338.899994</ele>
<time>2025-10-02T14:08:05.695Z</time>
</trkpt>
<trkpt lat="31.8375900" lon="35.0130200">
<ele>348.209991</ele>
<time>2025-10-02T14:08:05.695Z</time>
</trkpt>
<trkpt lat="31.8377300" lon="35.0151600">
<ele>363.190002</ele>
<time>2025-10-02T14:08:05.695Z</time>
</trkpt>
<trkpt lat="31.8376800" lon="35.0157600">
<ele>365.239990</ele>
<time>2025-10-02T14:08:05.695Z</time>
</trkpt>
<trkpt lat="31.8376200" lon="35.0159800">
<ele>364.759979</ele>
<time>2025-10-02T14:08:05.695Z</time>
</trkpt>
<trkpt lat="31.8376000" lon="35.0160400">
<ele>364.750000</ele>
<time>2025-10-02T14:08:05.695Z</time>
</trkpt>
<trkpt lat="31.8374000" lon="35.0164600">
<ele>365.200012</ele>
<time>2025-10-02T14:08:05.695Z</time>
</trkpt>
<trkpt lat="31.8371100" lon="35.0168900">
<ele>365.130005</ele>
<time>2025-10-02T14:08:05.695Z</time>
</trkpt>
<trkpt lat="31.8362700" lon="35.0176500">
<ele>367.079987</ele>
<time>2025-10-02T14:08:05.695Z</time>
</trkpt>
<trkpt lat="31.8361200" lon="35.0178500">
<ele>368.750000</ele>
<time>2025-10-02T14:08:05.695Z</time>
</trkpt>
<trkpt lat="31.8360000" lon="35.0181100">
<ele>370.040009</ele>
<time>2025-10-02T14:08:05.695Z</time>
</trkpt>
<trkpt lat="31.8358400" lon="35.0187400">
<ele>370.820007</ele>
<time>2025-10-02T14:08:05.695Z</time>
</trkpt>
<trkpt lat="31.8358400" lon="35.0187400">
<ele>370.820007</ele>
<time>2025-10-02T14:08:05.695Z</time>
</trkpt>
<trkpt lat="31.8358100" lon="35.0189700">
<ele>370.390015</ele>
<time>2025-10-02T14:08:05.695Z</time>
</trkpt>
<trkpt lat="31.8357100" lon="35.0192400">
<ele>369.379974</ele>
<time>2025-10-02T14:08:05.695Z</time>
</trkpt>
<trkpt lat="31.8355700" lon="35.0194800">
<ele>369.489990</ele>
<time>2025-10-02T14:08:05.695Z</time>
</trkpt>
<trkpt lat="31.8354100" lon="35.0196600">
<ele>366.800018</ele>
<time>2025-10-02T14:08:05.695Z</time>
</trkpt>
<trkpt lat="31.8347000" lon="35.0201000">
<ele>376.559998</ele>
<time>2025-10-02T14:08:05.695Z</time>
</trkpt>
<trkpt lat="31.8345000" lon="35.0202500">
<ele>376.199982</ele>
<time>2025-10-02T14:08:05.695Z</time>
</trkpt>
<trkpt lat="31.8343100" lon="35.0204700">
<ele>378.429993</ele>
<time>2025-10-02T14:08:05.695Z</time>
</trkpt>
<trkpt lat="31.8341300" lon="35.0207400">
<ele>380.059998</ele>
<time>2025-10-02T14:08:05.695Z</time>
</trkpt>
<trkpt lat="31.8340500" lon="35.0209100">
<ele>381.029999</ele>
<time>2025-10-02T14:08:05.695Z</time>
</trkpt>
<trkpt lat="31.8339300" lon="35.0212500">
<ele>382.519989</ele>
<time>2025-10-02T14:08:05.695Z</time>
</trkpt>
<trkpt lat="31.8338200" lon="35.0218600">
<ele>384.700012</ele>
<time>2025-10-02T14:08:05.695Z</time>
</trkpt>
<trkpt lat="31.8336600" lon="35.0232200">
<ele>383.769989</ele>
<time>2025-10-02T14:08:05.695Z</time>
</trkpt>
<trkpt lat="31.8335500" lon="35.0234100">
<ele>383.070007</ele>
<time>2025-10-02T14:08:05.695Z</time>
</trkpt>
<trkpt lat="31.8334400" lon="35.0234600">
<ele>380.880005</ele>
<time>2025-10-02T14:08:05.695Z</time>
</trkpt>
<trkpt lat="31.8332100" lon="35.0233800">
<ele>376.990021</ele>
<time>2025-10-02T14:08:05.695Z</time>
</trkpt>
<trkpt lat="31.8331200" lon="35.0233200">
<ele>376.149994</ele>
<time>2025-10-02T14:08:05.695Z</time>
</trkpt>
<trkpt lat="31.8330500" lon="35.0232200">
<ele>375.230011</ele>
<time>2025-10-02T14:08:05.695Z</time>
</trkpt>
<trkpt lat="31.8329800" lon="35.0229600">
<ele>373.489990</ele>
<time>2025-10-02T14:08:05.695Z</time>
</trkpt>
<trkpt lat="31.8329200" lon="35.0226200">
<ele>370.309998</ele>
<time>2025-10-02T14:08:05.695Z</time>
</trkpt>
<trkpt lat="31.8329300" lon="35.0220700">
<ele>365.250000</ele>
<time>2025-10-02T14:08:05.695Z</time>
</trkpt>
<trkpt lat="31.8329100" lon="35.0217800">
<ele>361.929993</ele>
<time>2025-10-02T14:08:05.695Z</time>
</trkpt>
<trkpt lat="31.8328700" lon="35.0215400">
<ele>361.389984</ele>
<time>2025-10-02T14:08:05.695Z</time>
</trkpt>
<trkpt lat="31.8327700" lon="35.0212500">
<ele>361.929993</ele>
<time>2025-10-02T14:08:05.695Z</time>
</trkpt>
<trkpt lat="31.8324300" lon="35.0208300">
<ele>362.529968</ele>
<time>2025-10-02T14:08:05.695Z</time>
</trkpt>
<trkpt lat="31.8318900" lon="35.0202600">
<ele>352.939972</ele>
<time>2025-10-02T14:08:05.695Z</time>
</trkpt>
<trkpt lat="31.8313200" lon="35.0197500">
<ele>343.560028</ele>
<time>2025-10-02T14:08:05.695Z</time>
</trkpt>
<trkpt lat="31.8307900" lon="35.0194300">
<ele>339.639984</ele>
<time>2025-10-02T14:08:05.695Z</time>
</trkpt>
<trkpt lat="31.8305000" lon="35.0193400">
<ele>330.350006</ele>
<time>2025-10-02T14:08:05.695Z</time>
</trkpt>
<trkpt lat="31.8303100" lon="35.0193300">
<ele>325.059998</ele>
<time>2025-10-02T14:08:05.695Z</time>
</trkpt>
<trkpt lat="31.8301900" lon="35.0193200">
<ele>322.490021</ele>
<time>2025-10-02T14:08:05.695Z</time>
</trkpt>
<trkpt lat="31.8297200" lon="35.0194000">
<ele>313.949982</ele>
<time>2025-10-02T14:08:05.695Z</time>
</trkpt>
<trkpt lat="31.8294700" lon="35.0194000">
<ele>308.839996</ele>
<time>2025-10-02T14:08:05.695Z</time>
</trkpt>
<trkpt lat="31.8290400" lon="35.0193600">
<ele>306.269989</ele>
<time>2025-10-02T14:08:05.695Z</time>
</trkpt>
<trkpt lat="31.8285300" lon="35.0192800">
<ele>297.649994</ele>
<time>2025-10-02T14:08:05.695Z</time>
</trkpt>
<trkpt lat="31.8282800" lon="35.0195300">
<ele>296.359985</ele>
<time>2025-10-02T14:08:05.695Z</time>
</trkpt>
<trkpt lat="31.8281800" lon="35.0197100">
<ele>296.829987</ele>
<time>2025-10-02T14:08:05.695Z</time>
</trkpt>
<trkpt lat="31.8281300" lon="35.0198600">
<ele>297.529999</ele>
<time>2025-10-02T14:08:05.695Z</time>
</trkpt>
<trkpt lat="31.8280700" lon="35.0203700">
<ele>301.399994</ele>
<time>2025-10-02T14:08:05.695Z</time>
</trkpt>
<trkpt lat="31.8280000" lon="35.0213600">
<ele>307.529999</ele>
<time>2025-10-02T14:08:05.695Z</time>
</trkpt>
<trkpt lat="31.8280000" lon="35.0213900">
<ele>307.799988</ele>
<time>2025-10-02T14:08:05.695Z</time>
</trkpt>
<trkpt lat="31.8278900" lon="35.0219500">
<ele>310.179993</ele>
<time>2025-10-02T14:08:05.695Z</time>
</trkpt>
<trkpt lat="31.8278400" lon="35.0221300">
<ele>309.809998</ele>
<time>2025-10-02T14:08:05.695Z</time>
</trkpt>
<trkpt lat="31.8277400" lon="35.0223200">
<ele>310.500000</ele>
<time>2025-10-02T14:08:05.695Z</time>
</trkpt>
<trkpt lat="31.8276100" lon="35.0225300">
<ele>316.819977</ele>
<time>2025-10-02T14:08:05.695Z</time>
</trkpt>
<trkpt lat="31.8272500" lon="35.0229500">
<ele>321.219971</ele>
<time>2025-10-02T14:08:05.695Z</time>
</trkpt>
<trkpt lat="31.8270900" lon="35.0232400">
<ele>323.119995</ele>
<time>2025-10-02T14:08:05.695Z</time>
</trkpt>
<trkpt lat="31.8270400" lon="35.0234600">
<ele>325.649994</ele>
<time>2025-10-02T14:08:05.695Z</time>
</trkpt>
<trkpt lat="31.8270300" lon="35.0236400">
<ele>328.339996</ele>
<time>2025-10-02T14:08:05.695Z</time>
</trkpt>
<trkpt lat="31.8271000" lon="35.0239100">
<ele>332.760010</ele>
<time>2025-10-02T14:08:05.695Z</time>
</trkpt>
<trkpt lat="31.8276900" lon="35.0246800">
<ele>331.539978</ele>
<time>2025-10-02T14:08:05.695Z</time>
</trkpt>
<trkpt lat="31.8280000" lon="35.0250900">
<ele>333.970001</ele>
<time>2025-10-02T14:08:05.695Z</time>
</trkpt>
<trkpt lat="31.8283400" lon="35.0256500">
<ele>346.699982</ele>
<time>2025-10-02T14:08:05.695Z</time>
</trkpt>
<trkpt lat="31.8286200" lon="35.0260100">
<ele>348.990021</ele>
<time>2025-10-02T14:08:05.695Z</time>
</trkpt>
<trkpt lat="31.8289300" lon="35.0263400">
<ele>344.000000</ele>
<time>2025-10-02T14:08:05.695Z</time>
</trkpt>
<trkpt lat="31.8289700" lon="35.0264000">
<ele>343.980011</ele>
<time>2025-10-02T14:08:05.695Z</time>
</trkpt>
<trkpt lat="31.8289800" lon="35.0264800">
<ele>343.890015</ele>
<time>2025-10-02T14:08:05.695Z</time>
</trkpt>
<trkpt lat="31.8289500" lon="35.0265400">
<ele>343.699982</ele>
<time>2025-10-02T14:08:05.695Z</time>
</trkpt>
<trkpt lat="31.8287900" lon="35.0267400">
<ele>342.369995</ele>
<time>2025-10-02T14:08:05.695Z</time>
</trkpt>
<trkpt lat="31.8287500" lon="35.0268300">
<ele>342.380005</ele>
<time>2025-10-02T14:08:05.695Z</time>
</trkpt>
<trkpt lat="31.8287200" lon="35.0270500">
<ele>343.860016</ele>
<time>2025-10-02T14:08:05.695Z</time>
</trkpt>
<trkpt lat="31.8287600" lon="35.0275600">
<ele>347.039978</ele>
<time>2025-10-02T14:08:05.695Z</time>
</trkpt>
<trkpt lat="31.8288300" lon="35.0278100">
<ele>347.920013</ele>
<time>2025-10-02T14:08:05.695Z</time>
</trkpt>
<trkpt lat="31.8289600" lon="35.0280600">
<ele>348.160004</ele>
<time>2025-10-02T14:08:05.695Z</time>
</trkpt>
<trkpt lat="31.8290700" lon="35.0281700">
<ele>345.130005</ele>
<time>2025-10-02T14:08:05.695Z</time>
</trkpt>
<trkpt lat="31.8292900" lon="35.0283400">
<ele>339.029999</ele>
<time>2025-10-02T14:08:05.695Z</time>
</trkpt>
<trkpt lat="31.8295600" lon="35.0284900">
<ele>332.130005</ele>
<time>2025-10-02T14:08:05.695Z</time>
</trkpt>
<trkpt lat="31.8296800" lon="35.0286700">
<ele>328.690002</ele>
<time>2025-10-02T14:08:05.695Z</time>
</trkpt>
<trkpt lat="31.8297200" lon="35.0288300">
<ele>328.190002</ele>
<time>2025-10-02T14:08:05.695Z</time>
</trkpt>
<trkpt lat="31.8297400" lon="35.0294900">
<ele>331.730011</ele>
<time>2025-10-02T14:08:05.695Z</time>
</trkpt>
<trkpt lat="31.8297700" lon="35.0296300">
<ele>333.460022</ele>
<time>2025-10-02T14:08:05.695Z</time>
</trkpt>
<trkpt lat="31.8298600" lon="35.0298100">
<ele>334.669983</ele>
<time>2025-10-02T14:08:05.695Z</time>
</trkpt>
<trkpt lat="31.8301100" lon="35.0300400">
<ele>335.900024</ele>
<time>2025-10-02T14:08:05.695Z</time>
</trkpt>
<trkpt lat="31.8307400" lon="35.0304200">
<ele>322.309998</ele>
<time>2025-10-02T14:08:05.695Z</time>
</trkpt>
<trkpt lat="31.8308100" lon="35.0304900">
<ele>322.130005</ele>
<time>2025-10-02T14:08:05.695Z</time>
</trkpt>
<trkpt lat="31.8309500" lon="35.0306800">
<ele>324.139984</ele>
<time>2025-10-02T14:08:05.695Z</time>
</trkpt>
<trkpt lat="31.8310200" lon="35.0308400">
<ele>324.660004</ele>
<time>2025-10-02T14:08:05.695Z</time>
</trkpt>
<trkpt lat="31.8311600" lon="35.0312500">
<ele>324.619995</ele>
<time>2025-10-02T14:08:05.695Z</time>
</trkpt>
<trkpt lat="31.8312100" lon="35.0315000">
<ele>324.470032</ele>
<time>2025-10-02T14:08:05.695Z</time>
</trkpt>
<trkpt lat="31.8312000" lon="35.0316600">
<ele>324.670013</ele>
<time>2025-10-02T14:08:05.695Z</time>
</trkpt>
<trkpt lat="31.8311000" lon="35.0319500">
<ele>323.999969</ele>
<time>2025-10-02T14:08:05.695Z</time>
</trkpt>
<trkpt lat="31.8310000" lon="35.0321600">
<ele>326.839996</ele>
<time>2025-10-02T14:08:05.695Z</time>
</trkpt>
<trkpt lat="31.8295800" lon="35.0310900">
<ele>321.770020</ele>
<time>2025-10-02T14:08:05.695Z</time>
</trkpt>
<trkpt lat="31.8293200" lon="35.0309400">
<ele>317.679993</ele>
<time>2025-10-02T14:08:05.695Z</time>
</trkpt>
<trkpt lat="31.8292500" lon="35.0309100">
<ele>316.590027</ele>
<time>2025-10-02T14:08:05.695Z</time>
</trkpt>
<trkpt lat="31.8288700" lon="35.0308600">
<ele>309.510010</ele>
<time>2025-10-02T14:08:05.695Z</time>
</trkpt>
<trkpt lat="31.8277600" lon="35.0309500">
<ele>288.019989</ele>
<time>2025-10-02T14:08:05.695Z</time>
</trkpt>
<trkpt lat="31.8271500" lon="35.0309600">
<ele>288.790009</ele>
<time>2025-10-02T14:08:05.695Z</time>
</trkpt>
<trkpt lat="31.8266300" lon="35.0309400">
<ele>290.610016</ele>
<time>2025-10-02T14:08:05.695Z</time>
</trkpt>
<trkpt lat="31.8264700" lon="35.0309000">
<ele>297.339996</ele>
<time>2025-10-02T14:08:05.695Z</time>
</trkpt>
<trkpt lat="31.8263500" lon="35.0308300">
<ele>302.450012</ele>
<time>2025-10-02T14:08:05.695Z</time>
</trkpt>
<trkpt lat="31.8261300" lon="35.0305900">
<ele>306.609985</ele>
<time>2025-10-02T14:08:05.695Z</time>
</trkpt>
<trkpt lat="31.8257200" lon="35.0301000">
<ele>300.089996</ele>
<time>2025-10-02T14:08:05.695Z</time>
</trkpt>
<trkpt lat="31.8253000" lon="35.0296500">
<ele>301.360016</ele>
<time>2025-10-02T14:08:05.695Z</time>
</trkpt>
<trkpt lat="31.8243300" lon="35.0285400">
<ele>293.290009</ele>
<time>2025-10-02T14:08:05.695Z</time>
</trkpt>
<trkpt lat="31.8231400" lon="35.0271400">
<ele>290.380005</ele>
<time>2025-10-02T14:08:05.695Z</time>
</trkpt>
<trkpt lat="31.8229900" lon="35.0269300">
<ele>288.809998</ele>
<time>2025-10-02T14:08:05.695Z</time>
</trkpt>
<trkpt lat="31.8229000" lon="35.0269800">
<ele>289.600006</ele>
<time>2025-10-02T14:08:05.695Z</time>
</trkpt>
<trkpt lat="31.8223600" lon="35.0267000">
<ele>289.559998</ele>
<time>2025-10-02T14:08:05.695Z</time>
</trkpt>
<trkpt lat="31.8218200" lon="35.0264700">
<ele>299.720001</ele>
<time>2025-10-02T14:08:05.695Z</time>
</trkpt>
<trkpt lat="31.8212900" lon="35.0262000">
<ele>301.630005</ele>
<time>2025-10-02T14:08:05.695Z</time>
</trkpt>
<trkpt lat="31.8209300" lon="35.0259300">
<ele>301.910004</ele>
<time>2025-10-02T14:08:05.695Z</time>
</trkpt>
<trkpt lat="31.8204900" lon="35.0257000">
<ele>303.229980</ele>
<time>2025-10-02T14:08:05.695Z</time>
</trkpt>
<trkpt lat="31.8202900" lon="35.0256300">
<ele>304.399994</ele>
<time>2025-10-02T14:08:05.695Z</time>
</trkpt>
<trkpt lat="31.8199000" lon="35.0255700">
<ele>304.559998</ele>
<time>2025-10-02T14:08:05.695Z</time>
</trkpt>
<trkpt lat="31.8196600" lon="35.0254700">
<ele>302.940002</ele>
<time>2025-10-02T14:08:05.695Z</time>
</trkpt>
<trkpt lat="31.8195700" lon="35.0253900">
<ele>299.940002</ele>
<time>2025-10-02T14:08:05.695Z</time>
</trkpt>
<trkpt lat="31.8194600" lon="35.0252100">
<ele>296.679993</ele>
<time>2025-10-02T14:08:05.695Z</time>
</trkpt>
<trkpt lat="31.8191900" lon="35.0245600">
<ele>286.700012</ele>
<time>2025-10-02T14:08:05.695Z</time>
</trkpt>
<trkpt lat="31.8190600" lon="35.0244200">
<ele>283.559998</ele>
<time>2025-10-02T14:08:05.695Z</time>
</trkpt>
<trkpt lat="31.8188500" lon="35.0244300">
<ele>281.180023</ele>
<time>2025-10-02T14:08:05.695Z</time>
</trkpt>
<trkpt lat="31.8185500" lon="35.0247300">
<ele>275.610016</ele>
<time>2025-10-02T14:08:05.695Z</time>
</trkpt>
<trkpt lat="31.8183100" lon="35.0250700">
<ele>275.799988</ele>
<time>2025-10-02T14:08:05.695Z</time>
</trkpt>
<trkpt lat="31.8180700" lon="35.0259500">
<ele>283.669983</ele>
<time>2025-10-02T14:08:05.695Z</time>
</trkpt>
<trkpt lat="31.8180800" lon="35.0260800">
<ele>284.399994</ele>
<time>2025-10-02T14:08:05.695Z</time>
</trkpt>
<trkpt lat="31.8180900" lon="35.0262300">
<ele>285.920013</ele>
<time>2025-10-02T14:08:05.695Z</time>
</trkpt>
<trkpt lat="31.8181700" lon="35.0264900">
<ele>289.229980</ele>
<time>2025-10-02T14:08:05.695Z</time>
</trkpt>
<trkpt lat="31.8181500" lon="35.0269600">
<ele>293.119995</ele>
<time>2025-10-02T14:08:05.695Z</time>
</trkpt>
<trkpt lat="31.8179800" lon="35.0275000">
<ele>291.179993</ele>
<time>2025-10-02T14:08:05.695Z</time>
</trkpt>
<trkpt lat="31.8179800" lon="35.0275000">
<ele>291.179993</ele>
<time>2025-10-02T14:08:05.695Z</time>
</trkpt>
<trkpt lat="31.8175200" lon="35.0283900">
<ele>291.609985</ele>
<time>2025-10-02T14:08:05.695Z</time>
</trkpt>
<trkpt lat="31.8174400" lon="35.0288000">
<ele>294.140015</ele>
<time>2025-10-02T14:08:05.695Z</time>
</trkpt>
<trkpt lat="31.8174400" lon="35.0288000">
<ele>294.140015</ele>
<time>2025-10-02T14:08:05.695Z</time>
</trkpt>
<trkpt lat="31.8173100" lon="35.0292900">
<ele>294.679993</ele>
<time>2025-10-02T14:08:05.695Z</time>
</trkpt>
<trkpt lat="31.8172600" lon="35.0297500">
<ele>295.440002</ele>
<time>2025-10-02T14:08:05.695Z</time>
</trkpt>
<trkpt lat="31.8174700" lon="35.0306900">
<ele>307.779999</ele>
<time>2025-10-02T14:08:05.695Z</time>
</trkpt>
<trkpt lat="31.8175100" lon="35.0307500">
<ele>308.269989</ele>
<time>2025-10-02T14:08:05.695Z</time>
</trkpt>
<trkpt lat="31.8176000" lon="35.0309400">
<ele>308.589996</ele>
<time>2025-10-02T14:08:05.695Z</time>
</trkpt>
<trkpt lat="31.8177500" lon="35.0311700">
<ele>306.750000</ele>
<time>2025-10-02T14:08:05.695Z</time>
</trkpt>
<trkpt lat="31.8179000" lon="35.0316400">
<ele>306.759979</ele>
<time>2025-10-02T14:08:05.695Z</time>
</trkpt>
<trkpt lat="31.8180900" lon="35.0320900">
<ele>309.419983</ele>
<time>2025-10-02T14:08:05.695Z</time>
</trkpt>
<trkpt lat="31.8181400" lon="35.0323000">
<ele>310.500000</ele>
<time>2025-10-02T14:08:05.695Z</time>
</trkpt>
<trkpt lat="31.8181500" lon="35.0325200">
<ele>309.470001</ele>
<time>2025-10-02T14:08:05.695Z</time>
</trkpt>
<trkpt lat="31.8182100" lon="35.0328400">
<ele>311.729980</ele>
<time>2025-10-02T14:08:05.695Z</time>
</trkpt>
<trkpt lat="31.8182500" lon="35.0329600">
<ele>312.839996</ele>
<time>2025-10-02T14:08:05.695Z</time>
</trkpt>
<trkpt lat="31.8185500" lon="35.0334300">
<ele>313.100006</ele>
<time>2025-10-02T14:08:05.695Z</time>
</trkpt>
<trkpt lat="31.8186000" lon="35.0335600">
<ele>312.440002</ele>
<time>2025-10-02T14:08:05.695Z</time>
</trkpt>
<trkpt lat="31.8187000" lon="35.0342000">
<ele>316.839996</ele>
<time>2025-10-02T14:08:05.695Z</time>
</trkpt>
<trkpt lat="31.8188200" lon="35.0346900">
<ele>321.049988</ele>
<time>2025-10-02T14:08:05.695Z</time>
</trkpt>
<trkpt lat="31.8187600" lon="35.0349300">
<ele>320.960022</ele>
<time>2025-10-02T14:08:05.695Z</time>
</trkpt>
<trkpt lat="31.8186400" lon="35.0351200">
<ele>320.390015</ele>
<time>2025-10-02T14:08:05.695Z</time>
</trkpt>
<trkpt lat="31.8185000" lon="35.0355100">
<ele>323.839996</ele>
<time>2025-10-02T14:08:05.695Z</time>
</trkpt>
<trkpt lat="31.8184600" lon="35.0362200">
<ele>321.579987</ele>
<time>2025-10-02T14:08:05.695Z</time>
</trkpt>
<trkpt lat="31.8182200" lon="35.0369500">
<ele>325.270020</ele>
<time>2025-10-02T14:08:05.695Z</time>
</trkpt>
<trkpt lat="31.8181800" lon="35.0371900">
<ele>329.929993</ele>
<time>2025-10-02T14:08:05.695Z</time>
</trkpt>
<trkpt lat="31.8180800" lon="35.0373500">
<ele>325.750000</ele>
<time>2025-10-02T14:08:05.695Z</time>
</trkpt>
<trkpt lat="31.8180200" lon="35.0375300">
<ele>321.200012</ele>
<time>2025-10-02T14:08:05.695Z</time>
</trkpt>
<trkpt lat="31.8178900" lon="35.0377100">
<ele>320.879974</ele>
<time>2025-10-02T14:08:05.695Z</time>
</trkpt>
<trkpt lat="31.8174800" lon="35.0380400">
<ele>323.220001</ele>
<time>2025-10-02T14:08:05.695Z</time>
</trkpt>
<trkpt lat="31.8173000" lon="35.0382500">
<ele>328.979980</ele>
<time>2025-10-02T14:08:05.695Z</time>
</trkpt>
<trkpt lat="31.8171200" lon="35.0385800">
<ele>334.619995</ele>
<time>2025-10-02T14:08:05.695Z</time>
</trkpt>
<trkpt lat="31.8169500" lon="35.0389500">
<ele>334.079987</ele>
<time>2025-10-02T14:08:05.695Z</time>
</trkpt>
<trkpt lat="31.8168500" lon="35.0392200">
<ele>337.070007</ele>
<time>2025-10-02T14:08:05.695Z</time>
</trkpt>
<trkpt lat="31.8162200" lon="35.0416300">
<ele>361.459991</ele>
<time>2025-10-02T14:08:05.695Z</time>
</trkpt>
<trkpt lat="31.8159500" lon="35.0424700">
<ele>368.670013</ele>
<time>2025-10-02T14:08:05.695Z</time>
</trkpt>
<trkpt lat="31.8158900" lon="35.0426100">
<ele>369.209991</ele>
<time>2025-10-02T14:08:05.695Z</time>
</trkpt>
<trkpt lat="31.8156200" lon="35.0430500">
<ele>369.160004</ele>
<time>2025-10-02T14:08:05.695Z</time>
</trkpt>
<trkpt lat="31.8155600" lon="35.0431900">
<ele>367.620026</ele>
<time>2025-10-02T14:08:05.695Z</time>
</trkpt>
<trkpt lat="31.8155500" lon="35.0435200">
<ele>367.700012</ele>
<time>2025-10-02T14:08:05.695Z</time>
</trkpt>
<trkpt lat="31.8156600" lon="35.0442200">
<ele>373.059998</ele>
<time>2025-10-02T14:08:05.695Z</time>
</trkpt>
<trkpt lat="31.8156900" lon="35.0447700">
<ele>374.019989</ele>
<time>2025-10-02T14:08:05.695Z</time>
</trkpt>
<trkpt lat="31.8157700" lon="35.0452500">
<ele>377.100006</ele>
<time>2025-10-02T14:08:05.695Z</time>
</trkpt>
<trkpt lat="31.8157800" lon="35.0454700">
<ele>377.790009</ele>
<time>2025-10-02T14:08:05.695Z</time>
</trkpt>
<trkpt lat="31.8157300" lon="35.0457100">
<ele>378.600006</ele>
<time>2025-10-02T14:08:05.695Z</time>
</trkpt>
<trkpt lat="31.8154700" lon="35.0465500">
<ele>380.079987</ele>
<time>2025-10-02T14:08:05.695Z</time>
</trkpt>
<trkpt lat="31.8153200" lon="35.0468300">
<ele>378.239990</ele>
<time>2025-10-02T14:08:05.695Z</time>
</trkpt>
<trkpt lat="31.8150400" lon="35.0470600">
<ele>378.830017</ele>
<time>2025-10-02T14:08:05.695Z</time>
</trkpt>
<trkpt lat="31.8147600" lon="35.0472900">
<ele>385.250000</ele>
<time>2025-10-02T14:08:05.695Z</time>
</trkpt>
<trkpt lat="31.8137000" lon="35.0484700">
<ele>388.800018</ele>
<time>2025-10-02T14:08:05.695Z</time>
</trkpt>
<trkpt lat="31.8135100" lon="35.0486300">
<ele>387.279999</ele>
<time>2025-10-02T14:08:05.695Z</time>
</trkpt>
<trkpt lat="31.8133100" lon="35.0488400">
<ele>386.660004</ele>
<time>2025-10-02T14:08:05.695Z</time>
</trkpt>
<trkpt lat="31.8131900" lon="35.0490000">
<ele>386.960022</ele>
<time>2025-10-02T14:08:05.695Z</time>
</trkpt>
<trkpt lat="31.8128300" lon="35.0497400">
<ele>388.559998</ele>
<time>2025-10-02T14:08:05.695Z</time>
</trkpt>
<trkpt lat="31.8126500" lon="35.0501700">
<ele>397.500031</ele>
<time>2025-10-02T14:08:05.695Z</time>
</trkpt>
<trkpt lat="31.8125600" lon="35.0506800">
<ele>408.450012</ele>
<time>2025-10-02T14:08:05.695Z</time>
</trkpt>
<trkpt lat="31.8125500" lon="35.0511400">
<ele>409.919983</ele>
<time>2025-10-02T14:08:05.695Z</time>
</trkpt>
<trkpt lat="31.8124700" lon="35.0515400">
<ele>410.569977</ele>
<time>2025-10-02T14:08:05.695Z</time>
</trkpt>
<trkpt lat="31.8124700" lon="35.0521000">
<ele>417.459991</ele>
<time>2025-10-02T14:08:05.695Z</time>
</trkpt>
<trkpt lat="31.8125300" lon="35.0528000">
<ele>424.500000</ele>
<time>2025-10-02T14:08:05.695Z</time>
</trkpt>
<trkpt lat="31.8125300" lon="35.0533000">
<ele>425.419983</ele>
<time>2025-10-02T14:08:05.695Z</time>
</trkpt>
<trkpt lat="31.8126000" lon="35.0535600">
<ele>426.369995</ele>
<time>2025-10-02T14:08:05.695Z</time>
</trkpt>
<trkpt lat="31.8126800" lon="35.0536800">
<ele>427.389984</ele>
<time>2025-10-02T14:08:05.695Z</time>
</trkpt>
<trkpt lat="31.8129400" lon="35.0538700">
<ele>434.279999</ele>
<time>2025-10-02T14:08:05.695Z</time>
</trkpt>
<trkpt lat="31.8131200" lon="35.0540400">
<ele>439.889984</ele>
<time>2025-10-02T14:08:05.695Z</time>
</trkpt>
<trkpt lat="31.8133300" lon="35.0544800">
<ele>435.730011</ele>
<time>2025-10-02T14:08:05.695Z</time>
</trkpt>
<trkpt lat="31.8136700" lon="35.0551100">
<ele>438.640015</ele>
<time>2025-10-02T14:08:05.695Z</time>
</trkpt>
<trkpt lat="31.8139100" lon="35.0554500">
<ele>442.709991</ele>
<time>2025-10-02T14:08:05.695Z</time>
</trkpt>
<trkpt lat="31.8139300" lon="35.0555400">
<ele>443.269989</ele>
<time>2025-10-02T14:08:05.695Z</time>
</trkpt>
<trkpt lat="31.8138100" lon="35.0558400">
<ele>439.499969</ele>
<time>2025-10-02T14:08:05.695Z</time>
</trkpt>
<trkpt lat="31.8136800" lon="35.0571100">
<ele>447.049988</ele>
<time>2025-10-02T14:08:05.695Z</time>
</trkpt>
<trkpt lat="31.8137500" lon="35.0576700">
<ele>448.889984</ele>
<time>2025-10-02T14:08:05.695Z</time>
</trkpt>
<trkpt lat="31.8137900" lon="35.0584100">
<ele>452.179993</ele>
<time>2025-10-02T14:08:05.695Z</time>
</trkpt>
<trkpt lat="31.8137300" lon="35.0583500">
<ele>450.710022</ele>
<time>2025-10-02T14:08:05.695Z</time>
</trkpt>
<trkpt lat="31.8136700" lon="35.0581700">
<ele>448.220001</ele>
<time>2025-10-02T14:08:05.695Z</time>
</trkpt>
<trkpt lat="31.8135500" lon="35.0578200">
<ele>446.589996</ele>
<time>2025-10-02T14:08:05.695Z</time>
</trkpt>
<trkpt lat="31.8134300" lon="35.0577400">
<ele>449.699982</ele>
<time>2025-10-02T14:08:05.695Z</time>
</trkpt>
<trkpt lat="31.8131600" lon="35.0577600">
<ele>457.019989</ele>
<time>2025-10-02T14:08:05.695Z</time>
</trkpt>
<trkpt lat="31.8130700" lon="35.0577100">
<ele>459.600006</ele>
<time>2025-10-02T14:08:05.695Z</time>
</trkpt>
<trkpt lat="31.8130400" lon="35.0576500">
<ele>460.340027</ele>
<time>2025-10-02T14:08:05.695Z</time>
</trkpt>
<trkpt lat="31.8130100" lon="35.0575300">
<ele>460.860016</ele>
<time>2025-10-02T14:08:05.695Z</time>
</trkpt>
<trkpt lat="31.8130000" lon="35.0571800">
<ele>462.010010</ele>
<time>2025-10-02T14:08:05.695Z</time>
</trkpt>
<trkpt lat="31.8128800" lon="35.0567700">
<ele>466.750000</ele>
<time>2025-10-02T14:08:05.695Z</time>
</trkpt>
<trkpt lat="31.8126300" lon="35.0561900">
<ele>474.479980</ele>
<time>2025-10-02T14:08:05.695Z</time>
</trkpt>
<trkpt lat="31.8124900" lon="35.0559500">
<ele>477.179993</ele>
<time>2025-10-02T14:08:05.695Z</time>
</trkpt>
<trkpt lat="31.8123600" lon="35.0556700">
<ele>478.639984</ele>
<time>2025-10-02T14:08:05.695Z</time>
</trkpt>
<trkpt lat="31.8123000" lon="35.0556300">
<ele>479.339996</ele>
<time>2025-10-02T14:08:05.695Z</time>
</trkpt>
<trkpt lat="31.8121900" lon="35.0556300">
<ele>479.959991</ele>
<time>2025-10-02T14:08:05.695Z</time>
</trkpt>
<trkpt lat="31.8121300" lon="35.0556600">
<ele>479.090027</ele>
<time>2025-10-02T14:08:05.695Z</time>
</trkpt>
<trkpt lat="31.8120800" lon="35.0557200">
<ele>478.620026</ele>
<time>2025-10-02T14:08:05.695Z</time>
</trkpt>
<trkpt lat="31.8119200" lon="35.0560400">
<ele>479.170013</ele>
<time>2025-10-02T14:08:05.695Z</time>
</trkpt>
<trkpt lat="31.8118700" lon="35.0561800">
<ele>480.910004</ele>
<time>2025-10-02T14:08:05.695Z</time>
</trkpt>
<trkpt lat="31.8117900" lon="35.0566200">
<ele>488.049988</ele>
<time>2025-10-02T14:08:05.695Z</time>
</trkpt>
<trkpt lat="31.8118100" lon="35.0567500">
<ele>489.929993</ele>
<time>2025-10-02T14:08:05.695Z</time>
</trkpt>
<trkpt lat="31.8119100" lon="35.0569600">
<ele>492.809998</ele>
<time>2025-10-02T14:08:05.695Z</time>
</trkpt>
<trkpt lat="31.8120300" lon="35.0571100">
<ele>491.810028</ele>
<time>2025-10-02T14:08:05.695Z</time>
</trkpt>
<trkpt lat="31.8120800" lon="35.0576600">
<ele>490.470001</ele>
<time>2025-10-02T14:08:05.695Z</time>
</trkpt>
<trkpt lat="31.8120500" lon="35.0578900">
<ele>492.360016</ele>
<time>2025-10-02T14:08:05.695Z</time>
</trkpt>
<trkpt lat="31.8120400" lon="35.0582400">
<ele>495.279968</ele>
<time>2025-10-02T14:08:05.695Z</time>
</trkpt>
<trkpt lat="31.8121200" lon="35.0585600">
<ele>496.040009</ele>
<time>2025-10-02T14:08:05.695Z</time>
</trkpt>
<trkpt lat="31.8120200" lon="35.0585200">
<ele>496.949982</ele>
<time>2025-10-02T14:08:05.695Z</time>
</trkpt>
<trkpt lat="31.8116600" lon="35.0585600">
<ele>498.910004</ele>
<time>2025-10-02T14:08:05.695Z</time>
</trkpt>
<trkpt lat="31.8115700" lon="35.0584800">
<ele>501.899994</ele>
<time>2025-10-02T14:08:05.695Z</time>
</trkpt>
<trkpt lat="31.8113200" lon="35.0580500">
<ele>507.179993</ele>
<time>2025-10-02T14:08:05.695Z</time>
</trkpt>
<trkpt lat="31.8111800" lon="35.0575300">
<ele>507.229980</ele>
<time>2025-10-02T14:08:05.695Z</time>
</trkpt>
<trkpt lat="31.8110700" lon="35.0569200">
<ele>507.489990</ele>
<time>2025-10-02T14:08:05.695Z</time>
</trkpt>
<trkpt lat="31.8110100" lon="35.0568200">
<ele>507.640015</ele>
<time>2025-10-02T14:08:05.695Z</time>
</trkpt>
<trkpt lat="31.8107200" lon="35.0564600">
<ele>514.750000</ele>
<time>2025-10-02T14:08:05.695Z</time>
</trkpt>
<trkpt lat="31.8104500" lon="35.0559400">
<ele>518.440002</ele>
<time>2025-10-02T14:08:05.695Z</time>
</trkpt>
<trkpt lat="31.8103200" lon="35.0555800">
<ele>518.760010</ele>
<time>2025-10-02T14:08:05.695Z</time>
</trkpt>
<trkpt lat="31.8097800" lon="35.0545500">
<ele>520.969971</ele>
<time>2025-10-02T14:08:05.695Z</time>
</trkpt>
<trkpt lat="31.8097300" lon="35.0543900">
<ele>520.830017</ele>
<time>2025-10-02T14:08:05.695Z</time>
</trkpt>
<trkpt lat="31.8097300" lon="35.0542700">
<ele>520.830017</ele>
<time>2025-10-02T14:08:05.695Z</time>
</trkpt>
<trkpt lat="31.8097700" lon="35.0541500">
<ele>520.020020</ele>
<time>2025-10-02T14:08:05.695Z</time>
</trkpt>
<trkpt lat="31.8097400" lon="35.0538000">
<ele>521.299988</ele>
<time>2025-10-02T14:08:05.695Z</time>
</trkpt>
<trkpt lat="31.8099800" lon="35.0533100">
<ele>526.950012</ele>
<time>2025-10-02T14:08:05.695Z</time>
</trkpt>
<trkpt lat="31.8101300" lon="35.0530900">
<ele>527.409973</ele>
<time>2025-10-02T14:08:05.695Z</time>
</trkpt>
<trkpt lat="31.8101600" lon="35.0529000">
<ele>527.760010</ele>
<time>2025-10-02T14:08:05.695Z</time>
</trkpt>
<trkpt lat="31.8101400" lon="35.0527800">
<ele>527.980042</ele>
<time>2025-10-02T14:08:05.695Z</time>
</trkpt>
<trkpt lat="31.8100700" lon="35.0526300">
<ele>528.190002</ele>
<time>2025-10-02T14:08:05.695Z</time>
</trkpt>
<trkpt lat="31.8098300" lon="35.0522700">
<ele>532.770020</ele>
<time>2025-10-02T14:08:05.695Z</time>
</trkpt>
<trkpt lat="31.8097200" lon="35.0520100">
<ele>534.780029</ele>
<time>2025-10-02T14:08:05.695Z</time>
</trkpt>
<trkpt lat="31.8096600" lon="35.0517000">
<ele>537.119995</ele>
<time>2025-10-02T14:08:05.695Z</time>
</trkpt>
<trkpt lat="31.8096000" lon="35.0515000">
<ele>539.580017</ele>
<time>2025-10-02T14:08:05.695Z</time>
</trkpt>
<trkpt lat="31.8095600" lon="35.0511600">
<ele>541.739990</ele>
<time>2025-10-02T14:08:05.695Z</time>
</trkpt>
<trkpt lat="31.8093700" lon="35.0502200">
<ele>551.799988</ele>
<time>2025-10-02T14:08:05.695Z</time>
</trkpt>
<trkpt lat="31.8092800" lon="35.0498400">
<ele>552.779968</ele>
<time>2025-10-02T14:08:05.695Z</time>
</trkpt>
<trkpt lat="31.8092400" lon="35.0497700">
<ele>553.209961</ele>
<time>2025-10-02T14:08:05.695Z</time>
</trkpt>
<trkpt lat="31.8090300" lon="35.0496400">
<ele>554.179993</ele>
<time>2025-10-02T14:08:05.695Z</time>
</trkpt>
<trkpt lat="31.8087900" lon="35.0498500">
<ele>556.260010</ele>
<time>2025-10-02T14:08:05.695Z</time>
</trkpt>
<trkpt lat="31.8086100" lon="35.0499100">
<ele>558.320007</ele>
<time>2025-10-02T14:08:05.695Z</time>
</trkpt>
<trkpt lat="31.8086000" lon="35.0497600">
<ele>558.789978</ele>
<time>2025-10-02T14:08:05.695Z</time>
</trkpt>
<trkpt lat="31.8082700" lon="35.0491500">
<ele>558.659973</ele>
<time>2025-10-02T14:08:05.695Z</time>
</trkpt>
<trkpt lat="31.8081500" lon="35.0488000">
<ele>555.179993</ele>
<time>2025-10-02T14:08:05.695Z</time>
</trkpt>
<trkpt lat="31.8079000" lon="35.0479000">
<ele>545.830017</ele>
<time>2025-10-02T14:08:05.695Z</time>
</trkpt>
<trkpt lat="31.8078400" lon="35.0475800">
<ele>541.500000</ele>
<time>2025-10-02T14:08:05.695Z</time>
</trkpt>
<trkpt lat="31.8078200" lon="35.0471300">
<ele>536.809998</ele>
<time>2025-10-02T14:08:05.695Z</time>
</trkpt>
<trkpt lat="31.8078500" lon="35.0468000">
<ele>535.250000</ele>
<time>2025-10-02T14:08:05.695Z</time>
</trkpt>
<trkpt lat="31.8079800" lon="35.0461300">
<ele>532.739990</ele>
<time>2025-10-02T14:08:05.695Z</time>
</trkpt>
<trkpt lat="31.8080600" lon="35.0452800">
<ele>527.070007</ele>
<time>2025-10-02T14:08:05.695Z</time>
</trkpt>
<trkpt lat="31.8080600" lon="35.0443000">
<ele>518.950012</ele>
<time>2025-10-02T14:08:05.695Z</time>
</trkpt>
<trkpt lat="31.8081400" lon="35.0433200">
<ele>509.109985</ele>
<time>2025-10-02T14:08:05.695Z</time>
</trkpt>
<trkpt lat="31.8081200" lon="35.0422400">
<ele>497.470001</ele>
<time>2025-10-02T14:08:05.695Z</time>
</trkpt>
<trkpt lat="31.8081500" lon="35.0419300">
<ele>490.600006</ele>
<time>2025-10-02T14:08:05.695Z</time>
</trkpt>
<trkpt lat="31.8082300" lon="35.0417700">
<ele>486.370026</ele>
<time>2025-10-02T14:08:05.695Z</time>
</trkpt>
<trkpt lat="31.8083500" lon="35.0416900">
<ele>484.640015</ele>
<time>2025-10-02T14:08:05.695Z</time>
</trkpt>
<trkpt lat="31.8086500" lon="35.0415600">
<ele>484.109985</ele>
<time>2025-10-02T14:08:05.695Z</time>
</trkpt>
<trkpt lat="31.8091400" lon="35.0409300">
<ele>478.820007</ele>
<time>2025-10-02T14:08:05.695Z</time>
</trkpt>
<trkpt lat="31.8092500" lon="35.0407200">
<ele>477.890015</ele>
<time>2025-10-02T14:08:05.695Z</time>
</trkpt>
<trkpt lat="31.8092600" lon="35.0403900">
<ele>476.740021</ele>
<time>2025-10-02T14:08:05.695Z</time>
</trkpt>
<trkpt lat="31.8091800" lon="35.0401500">
<ele>477.299988</ele>
<time>2025-10-02T14:08:05.695Z</time>
</trkpt>
<trkpt lat="31.8084100" lon="35.0386500">
<ele>472.130005</ele>
<time>2025-10-02T14:08:05.695Z</time>
</trkpt>
<trkpt lat="31.8084100" lon="35.0386500">
<ele>472.130005</ele>
<time>2025-10-02T14:08:05.695Z</time>
</trkpt>
<trkpt lat="31.8082500" lon="35.0382500">
<ele>466.500000</ele>
<time>2025-10-02T14:08:05.695Z</time>
</trkpt>
<trkpt lat="31.8082000" lon="35.0380200">
<ele>461.330017</ele>
<time>2025-10-02T14:08:05.695Z</time>
</trkpt>
<trkpt lat="31.8081700" lon="35.0375600">
<ele>456.459991</ele>
<time>2025-10-02T14:08:05.695Z</time>
</trkpt>
<trkpt lat="31.8081900" lon="35.0372700">
<ele>454.359985</ele>
<time>2025-10-02T14:08:05.695Z</time>
</trkpt>
<trkpt lat="31.8082700" lon="35.0369200">
<ele>452.210022</ele>
<time>2025-10-02T14:08:05.695Z</time>
</trkpt>
<trkpt lat="31.8084000" lon="35.0365900">
<ele>449.369995</ele>
<time>2025-10-02T14:08:05.695Z</time>
</trkpt>
<trkpt lat="31.8086300" lon="35.0362000">
<ele>447.010010</ele>
<time>2025-10-02T14:08:05.695Z</time>
</trkpt>
<trkpt lat="31.8086900" lon="35.0360700">
<ele>446.009979</ele>
<time>2025-10-02T14:08:05.695Z</time>
</trkpt>
<trkpt lat="31.8089200" lon="35.0353400">
<ele>440.709991</ele>
<time>2025-10-02T14:08:05.695Z</time>
</trkpt>
<trkpt lat="31.8090700" lon="35.0350000">
<ele>434.960022</ele>
<time>2025-10-02T14:08:05.695Z</time>
</trkpt>
<trkpt lat="31.8092500" lon="35.0347000">
<ele>431.140015</ele>
<time>2025-10-02T14:08:05.695Z</time>
</trkpt>
<trkpt lat="31.8094900" lon="35.0344200">
<ele>430.580017</ele>
<time>2025-10-02T14:08:05.695Z</time>
</trkpt>
<trkpt lat="31.8096100" lon="35.0343200">
<ele>427.839996</ele>
<time>2025-10-02T14:08:05.695Z</time>
</trkpt>
<trkpt lat="31.8098700" lon="35.0342200">
<ele>420.199982</ele>
<time>2025-10-02T14:08:05.695Z</time>
</trkpt>
<trkpt lat="31.8101900" lon="35.0342000">
<ele>415.630005</ele>
<time>2025-10-02T14:08:05.695Z</time>
</trkpt>
<trkpt lat="31.8107900" lon="35.0342700">
<ele>413.229980</ele>
<time>2025-10-02T14:08:05.695Z</time>
</trkpt>
<trkpt lat="31.8108900" lon="35.0342600">
<ele>413.619995</ele>
<time>2025-10-02T14:08:05.695Z</time>
</trkpt>
<trkpt lat="31.8110400" lon="35.0342100">
<ele>413.349976</ele>
<time>2025-10-02T14:08:05.695Z</time>
</trkpt>
<trkpt lat="31.8111400" lon="35.0341400">
<ele>412.829987</ele>
<time>2025-10-02T14:08:05.695Z</time>
</trkpt>
<trkpt lat="31.8113300" lon="35.0340100">
<ele>412.760010</ele>
<time>2025-10-02T14:08:05.695Z</time>
</trkpt>
<trkpt lat="31.8114200" lon="35.0338900">
<ele>412.659973</ele>
<time>2025-10-02T14:08:05.695Z</time>
</trkpt>
<trkpt lat="31.8118500" lon="35.0329200">
<ele>409.480011</ele>
<time>2025-10-02T14:08:05.695Z</time>
</trkpt>
<trkpt lat="31.8120000" lon="35.0324300">
<ele>410.940002</ele>
<time>2025-10-02T14:08:05.695Z</time>
</trkpt>
<trkpt lat="31.8120700" lon="35.0317100">
<ele>399.589996</ele>
<time>2025-10-02T14:08:05.695Z</time>
</trkpt>
<trkpt lat="31.8121600" lon="35.0315100">
<ele>394.379974</ele>
<time>2025-10-02T14:08:05.695Z</time>
</trkpt>
<trkpt lat="31.8122200" lon="35.0314500">
<ele>392.960022</ele>
<time>2025-10-02T14:08:05.695Z</time>
</trkpt>
<trkpt lat="31.8123200" lon="35.0314000">
<ele>391.350006</ele>
<time>2025-10-02T14:08:05.695Z</time>
</trkpt>
<trkpt lat="31.8124200" lon="35.0313900">
<ele>391.029999</ele>
<time>2025-10-02T14:08:05.695Z</time>
</trkpt>
<trkpt lat="31.8129000" lon="35.0315100">
<ele>387.399994</ele>
<time>2025-10-02T14:08:05.695Z</time>
</trkpt>
<trkpt lat="31.8133000" lon="35.0315200">
<ele>381.350006</ele>
<time>2025-10-02T14:08:05.695Z</time>
</trkpt>
<trkpt lat="31.8134200" lon="35.0314800">
<ele>381.600006</ele>
<time>2025-10-02T14:08:05.695Z</time>
</trkpt>
<trkpt lat="31.8135600" lon="35.0314100">
<ele>383.859985</ele>
<time>2025-10-02T14:08:05.695Z</time>
</trkpt>
<trkpt lat="31.8136500" lon="35.0313100">
<ele>383.849976</ele>
<time>2025-10-02T14:08:05.695Z</time>
</trkpt>
<trkpt lat="31.8137100" lon="35.0312000">
<ele>382.589996</ele>
<time>2025-10-02T14:08:05.695Z</time>
</trkpt>
<trkpt lat="31.8137900" lon="35.0308800">
<ele>384.089996</ele>
<time>2025-10-02T14:08:05.695Z</time>
</trkpt>
<trkpt lat="31.8137900" lon="35.0307400">
<ele>385.250000</ele>
<time>2025-10-02T14:08:05.695Z</time>
</trkpt>
<trkpt lat="31.8136000" lon="35.0300700">
<ele>381.639984</ele>
<time>2025-10-02T14:08:05.695Z</time>
</trkpt>
<trkpt lat="31.8136000" lon="35.0298300">
<ele>377.750000</ele>
<time>2025-10-02T14:08:05.695Z</time>
</trkpt>
<trkpt lat="31.8136400" lon="35.0295700">
<ele>373.679993</ele>
<time>2025-10-02T14:08:05.695Z</time>
</trkpt>
<trkpt lat="31.8137800" lon="35.0291400">
<ele>366.169983</ele>
<time>2025-10-02T14:08:05.695Z</time>
</trkpt>
<trkpt lat="31.8138800" lon="35.0289600">
<ele>360.779999</ele>
<time>2025-10-02T14:08:05.695Z</time>
</trkpt>
<trkpt lat="31.8140000" lon="35.0288300">
<ele>358.220001</ele>
<time>2025-10-02T14:08:05.695Z</time>
</trkpt>
<trkpt lat="31.8141400" lon="35.0287700">
<ele>358.959991</ele>
<time>2025-10-02T14:08:05.695Z</time>
</trkpt>
<trkpt lat="31.8142300" lon="35.0287000">
<ele>358.519989</ele>
<time>2025-10-02T14:08:05.695Z</time>
</trkpt>
<trkpt lat="31.8143500" lon="35.0285600">
<ele>357.949982</ele>
<time>2025-10-02T14:08:05.695Z</time>
</trkpt>
<trkpt lat="31.8144300" lon="35.0284200">
<ele>358.100006</ele>
<time>2025-10-02T14:08:05.695Z</time>
</trkpt>
<trkpt lat="31.8145700" lon="35.0280900">
<ele>355.200012</ele>
<time>2025-10-02T14:08:05.695Z</time>
</trkpt>
<trkpt lat="31.8146600" lon="35.0277200">
<ele>350.739990</ele>
<time>2025-10-02T14:08:05.695Z</time>
</trkpt>
<trkpt lat="31.8147600" lon="35.0274100">
<ele>345.940002</ele>
<time>2025-10-02T14:08:05.695Z</time>
</trkpt>
<trkpt lat="31.8148900" lon="35.0271700">
<ele>339.740021</ele>
<time>2025-10-02T14:08:05.695Z</time>
</trkpt>
<trkpt lat="31.8150000" lon="35.0270600">
<ele>338.080017</ele>
<time>2025-10-02T14:08:05.695Z</time>
</trkpt>
<trkpt lat="31.8153700" lon="35.0267600">
<ele>337.339996</ele>
<time>2025-10-02T14:08:05.695Z</time>
</trkpt>
<trkpt lat="31.8155800" lon="35.0266500">
<ele>336.260010</ele>
<time>2025-10-02T14:08:05.695Z</time>
</trkpt>
<trkpt lat="31.8157300" lon="35.0266400">
<ele>338.850006</ele>
<time>2025-10-02T14:08:05.695Z</time>
</trkpt>
<trkpt lat="31.8160000" lon="35.0267400">
<ele>340.860016</ele>
<time>2025-10-02T14:08:05.695Z</time>
</trkpt>
<trkpt lat="31.8162300" lon="35.0268900">
<ele>340.430023</ele>
<time>2025-10-02T14:08:05.695Z</time>
</trkpt>
<trkpt lat="31.8164400" lon="35.0271200">
<ele>336.010010</ele>
<time>2025-10-02T14:08:05.695Z</time>
</trkpt>
<trkpt lat="31.8167000" lon="35.0275500">
<ele>327.709991</ele>
<time>2025-10-02T14:08:05.695Z</time>
</trkpt>
<trkpt lat="31.8167500" lon="35.0276900">
<ele>324.089996</ele>
<time>2025-10-02T14:08:05.695Z</time>
</trkpt>
<trkpt lat="31.8167600" lon="35.0279000">
<ele>321.369995</ele>
<time>2025-10-02T14:08:05.695Z</time>
</trkpt>
<trkpt lat="31.8167100" lon="35.0282700">
<ele>319.450012</ele>
<time>2025-10-02T14:08:05.695Z</time>
</trkpt>
<trkpt lat="31.8163900" lon="35.0296200">
<ele>312.369995</ele>
<time>2025-10-02T14:08:05.695Z</time>
</trkpt>
<trkpt lat="31.8162700" lon="35.0298600">
<ele>310.010010</ele>
<time>2025-10-02T14:08:05.695Z</time>
</trkpt>
<trkpt lat="31.8160400" lon="35.0301700">
<ele>307.550018</ele>
<time>2025-10-02T14:08:05.695Z</time>
</trkpt>
<trkpt lat="31.8160000" lon="35.0303200">
<ele>307.959991</ele>
<time>2025-10-02T14:08:05.695Z</time>
</trkpt>
<trkpt lat="31.8160400" lon="35.0304000">
<ele>308.739990</ele>
<time>2025-10-02T14:08:05.695Z</time>
</trkpt>
<trkpt lat="31.8161700" lon="35.0304400">
<ele>309.720001</ele>
<time>2025-10-02T14:08:05.695Z</time>
</trkpt>
<trkpt lat="31.8165800" lon="35.0303200">
<ele>313.580017</ele>
<time>2025-10-02T14:08:05.695Z</time>
</trkpt>
<trkpt lat="31.8166700" lon="35.0303100">
<ele>314.910004</ele>
<time>2025-10-02T14:08:05.695Z</time>
</trkpt>
<trkpt lat="31.8168800" lon="35.0303400">
<ele>309.369995</ele>
<time>2025-10-02T14:08:05.695Z</time>
</trkpt>
<trkpt lat="31.8170400" lon="35.0304000">
<ele>306.639984</ele>
<time>2025-10-02T14:08:05.695Z</time>
</trkpt>
<trkpt lat="31.8171600" lon="35.0305000">
<ele>305.049988</ele>
<time>2025-10-02T14:08:05.695Z</time>
</trkpt>
<trkpt lat="31.8173300" lon="35.0307900">
<ele>307.619995</ele>
<time>2025-10-02T14:08:05.695Z</time>
</trkpt>
<trkpt lat="31.8174400" lon="35.0308200">
<ele>307.959991</ele>
<time>2025-10-02T14:08:05.695Z</time>
</trkpt>
<trkpt lat="31.8175100" lon="35.0307500">
<ele>308.269989</ele>
<time>2025-10-02T14:08:05.695Z</time>
</trkpt>
<trkpt lat="31.8174700" lon="35.0306900">
<ele>307.779999</ele>
<time>2025-10-02T14:08:05.695Z</time>
</trkpt>
<trkpt lat="31.8172600" lon="35.0297500">
<ele>295.440002</ele>
<time>2025-10-02T14:08:05.695Z</time>
</trkpt>
<trkpt lat="31.8173100" lon="35.0292900">
<ele>294.679993</ele>
<time>2025-10-02T14:08:05.695Z</time>
</trkpt>
<trkpt lat="31.8174400" lon="35.0288000">
<ele>294.140015</ele>
<time>2025-10-02T14:08:05.695Z</time>
</trkpt>
<trkpt lat="31.8174400" lon="35.0288000">
<ele>294.140015</ele>
<time>2025-10-02T14:08:05.695Z</time>
</trkpt>
<trkpt lat="31.8175200" lon="35.0283900">
<ele>291.609985</ele>
<time>2025-10-02T14:08:05.695Z</time>
</trkpt>
<trkpt lat="31.8175300" lon="35.0272500">
<ele>285.589996</ele>
<time>2025-10-02T14:08:05.695Z</time>
</trkpt>
<trkpt lat="31.8176100" lon="35.0264500">
<ele>282.320007</ele>
<time>2025-10-02T14:08:05.695Z</time>
</trkpt>
<trkpt lat="31.8176700" lon="35.0262500">
<ele>281.220001</ele>
<time>2025-10-02T14:08:05.695Z</time>
</trkpt>
<trkpt lat="31.8177100" lon="35.0261800">
<ele>281.009979</ele>
<time>2025-10-02T14:08:05.695Z</time>
</trkpt>
<trkpt lat="31.8180400" lon="35.0260900">
<ele>283.750000</ele>
<time>2025-10-02T14:08:05.695Z</time>
</trkpt>
</trkseg>
</trk>
</gpx>
